GFSSE_con_sbcape_057.txt.gz
CAPE
1830 2719 3380 2992 2780 2719 2283 2106 2233 2672 2670 2906 3211 3049 2736 2472 2279 2316 2301 1768 1579 1592 1436 1456 1400 1509 1327 1437 1166 920 675 604 1078 799 1143 1158 906 606 243 690 619 195 47
1944 2827 3533 3450 2824 2730 2364 2123 2230 2656 2522 2577 3018 2806 2498 2657 2311 2415 2575 1797 1668 1637 1397 1418 1581 1414 1307 1167 895 666 710 1038 791 739 520 840 1020 265 3 379 649 0 539
2175 2737 3140 3498 3135 2785 2376 2158 2144 2377 2194 1978 2445 2388 2306 2639 2463 2404 1945 1871 1740 1952 1843 1617 1579 1508 1275 809 858 803 1176 1222 1406 984 1047 345 538 694 607 478 889 83 390
2185 2460 2887 3550 3492 2857 2499 2261 2160 2304 2273 2370 2158 1770 2233 1831 1598 1732 2018 2141 2172 1961 1897 1696 1637 1498 1009 955 1451 1016 1431 668 839 1059 369 378 666 542 200 651 783 436 99
2127 2333 2745 3255 3130 2840 2639 2552 2460 2666 2464 2363 2124 1985 1827 1753 1089 1232 1438 1707 2046 1949 1932 1764 1718 1397 1067 727 1272 1243 1255 1083 628 498 78 241 243 76 338 463 21 441 782
2035 2203 3155 3119 2580 2695 2527 2497 2530 2587 2484 2182 2187 2150 2084 2046 1807 1293 1462 1371 1717 1696 1800 1825 1832 1006 1385 1164 1030 1203 886 931 879 294 0 420 380 483 631 1114 335 0 326
1916 2267 2751 3319 3139 2897 2681 2442 2519 2549 2404 2156 2059 2034 1930 1932 1941 1935 1759 1779 1374 1435 1565 1607 1181 1136 1498 1386 1155 1053 708 903 563 415 142 409 387 919 353 758 225 873 271
1866 2292 2446 2836 2810 2600 2468 2485 2315 2062 1953 2098 2039 1969 1920 1813 1854 1774 1772 1713 1710 1741 1320 1559 1614 1186 1593 1480 1274 1004 834 893 626 152 118 228 625 1652 495 445 474 428 146
2139 2382 2354 2349 2289 2484 2356 2452 2523 2239 2090 2177 2127 2026 1949 1927 1820 1960 1830 1808 1613 1639 1747 1476 1528 1765 1674 1719 1275 1309 1039 632 403 271 173 201 1438 1368 1002 729 939 1060 190
2110 1936 1607 1734 1794 1858 1985 2427 2438 2377 2331 2315 2266 2176 1968 1810 1822 1843 2153 2440 1754 1797 1730 1675 1368 1358 1774 1749 1682 1111 1070 696 440 130 58 159 1351 1067 887 724 674 453 152
600 544 201 36 118 308 1164 2032 2702 2325 2160 2068 1899 1896 1765 1231 1253 1407 1610 1866 1585 1336 1557 1500 1535 1470 1214 1667 1704 1682 1091 502 397 28 32 506 1283 854 839 314 705 749 507
354 165 74 70 44 67 799 1620 1853 1490 1474 1405 1603 1580 1356 930 752 1071 1569 1467 1568 1316 1291 1470 1738 1829 1520 795 849 1559 809 430 323 54 178 654 1276 1040 1158 1438 535 691 958
226 117 15 59 20 0 2 100 1450 1428 1080 1031 1151 880 956 520 591 146 198 818 895 1124 773 1057 1209 976 998 556 602 712 791 512 272 161 526 1098 1437 1246 1582 1651 1345 889 484
28 7 0 7 2 0 6 33 269 769 745 696 886 685 354 93 11 0 4 173 397 587 540 383 102 123 83 101 55 143 319 463 254 134 413 1410 1504 1435 1514 1375 1481 1311 1116
0 0 0 4 12 5 1 71 100 134 344 277 278 291 185 33 0 0 0 104 203 188 225 67 0 0 0 0 0 139 416 466 323 116 204 1246 1597 1601 1752 1859 1304 1116 1445
38 0 0 0 6 0 6 97 58 4 34 81 12 11 64 8 0 0 2 162 119 105 62 29 8 0 0 0 0 31 50 164 338 250 121 151 1267 1578 1397 1493 1891 1759 1528
5 0 0 0 0 0 35 180 151 45 0 0 7 0 164 32 41 55 65 38 46 68 19 0 0 0 9 25 33 66 82 176 382 246 147 160 317 1621 1330 1818 1766 1838 2127
0 0 0 0 0 8 151 255 146 57 0 0 0 8 109 165 83 32 9 4 0 17 0 0 0 0 0 0 2 55 109 141 284 176 234 436 286 573 1460 2034 1364 1464 1585
0 0 0 0 183 387 452 249 122 38 1 1 6 58 121 176 124 83 8 5 32 20 0 0 0 0 0 0 0 9 31 71 121 244 165 238 341 563 622 949 1462 1440 1243
0 0 0 0 311 313 117 3 0 0 1 0 33 13 4 33 108 63 15 6 6 81 74 12 19 7 0 0 123 451 121 112 101 85 119 293 239 372 347 248 322 505 1160
0 0 0 166 135 334 63 0 0 1 0 1 0 0 2 8 24 10 0 0 7 70 96 110 67 51 26 20 54 25 8 20 18 10 49 64 147 117 238 266 247 274 248
5 113 6 280 21 284 511 40 0 0 0 0 2 0 0 3 7 21 0 0 24 30 72 133 135 59 44 23 29 0 9 0 0 0 0 24 14 90 143 127 137 96 89
316 179 233 196 0 47 575 5 0 0 0 0 0 14 15 43 53 33 90 12 48 43 67 76 88 92 56 0 0 0 0 0 0 3 5 3 2 1 9 0 1 1 1
332 316 30 68 141 714 122 26 1 1 0 0 14 32 63 169 132 82 69 86 79 119 168 107 69 32 0 0 0 0 0 0 0 0 2 0 4 1 0 4 0 0 0
774 561 262 683 1177 563 73 30 18 58 55 97 100 46 19 57 79 101 73 54 46 32 68 109 115 68 0 14 0 0 0 0 0 0 2 1 1 3 4 9 13 4 4
1089 854 1026 245 1336 713 44 76 264 231 387 253 139 29 51 37 26 50 56 39 31 0 0 0 0 2 34 0 0 0 0 0 1 0 1 3 1 3 2 3 3 2 2

GFSSE_con_sbcape_060.txt.gz
CAPE
1580 2304 2669 2931 2570 2096 1926 1798 2074 2334 2469 2938 2812 2701 2625 2276 1957 1890 1687 1696 1641 1475 1364 1450 1366 1463 1303 1173 930 813 670 871 1209 585 946 1140 837 767 878 898 691 0 0
1892 2641 2562 3157 2844 2147 2115 2292 2188 2595 2546 2664 2813 2607 2388 2315 2190 2196 1980 1717 1762 1589 1556 1562 1488 1396 1059 1145 682 552 470 1169 1074 1115 988 893 343 185 497 235 178 81 0
2356 2630 2954 3185 3083 2321 2161 2431 2417 2459 2358 2413 2629 2376 2359 2564 2413 2164 1783 1754 1782 1499 1498 1718 1614 1488 1068 862 592 919 664 897 1181 806 890 858 85 179 530 898 37 732 180
2202 2487 2775 3254 3215 2589 2283 2446 2660 2353 2096 2390 2352 2477 2488 2356 2222 1988 1929 1855 1963 2018 1846 1866 1653 1142 847 935 855 1144 1241 1220 1176 899 617 633 204 767 491 633 0 338 942
2019 2204 2600 3037 3128 2585 2188 2457 2649 2801 2522 2177 1960 2443 2018 1881 1919 2062 2002 1904 1977 2006 1791 1883 1711 1009 962 1583 1158 1442 697 857 1007 589 261 377 364 93 534 643 688 238 777
1761 1968 2752 2975 2792 2628 2367 2219 2385 2684 2541 2256 1920 1965 1970 1381 1518 1500 1556 2045 1988 1985 1832 1862 1389 1357 942 1258 962 938 982 884 617 170 132 687 301 275 452 172 163 865 583
1707 1814 2595 3223 3140 2995 2550 2361 2594 2702 2437 2170 2152 2141 2169 2068 1709 1757 1642 1605 1837 1711 1954 1803 1094 1436 1203 1230 1044 704 794 622 544 494 36 596 614 846 650 778 0 189 813
1610 2027 2430 2649 2996 2650 2434 2430 2462 2307 2158 2067 2162 2060 2027 2087 2097 2034 1902 1807 1528 1443 1579 1553 1137 1454 1426 1077 795 731 920 760 687 408 217 486 776 833 710 505 372 716 169
1984 2047 2096 2186 2369 2535 2478 2436 2294 2092 2000 2117 2090 2068 1982 1916 1905 1885 1960 1850 1862 1884 1453 1714 1780 1387 1448 1111 955 925 858 840 606 302 261 378 1289 1173 643 511 629 218 150
2058 2077 1927 1528 1241 1477 1434 2133 2242 2236 2096 2143 2157 2081 1934 1987 1775 1924 2255 2366 1799 1770 1819 1537 1451 1907 1861 1445 1161 964 817 835 687 301 353 319 1284 1415 902 687 850 1015 62
1314 1032 715 695 547 819 1020 1439 2091 2083 2137 1977 2067 2160 1919 1388 1450 1871 1874 2021 1763 1716 1807 1584 1467 1565 1814 1867 1500 1039 913 678 385 206 279 510 1356 1069 881 816 632 701 153
564 217 86 199 142 228 1094 1192 1112 1180 1512 1567 1603 1392 1262 1070 894 1315 1732 1680 1667 1444 1503 1682 1740 1494 1382 1233 1472 1552 958 609 419 190 632 822 1606 971 1343 1171 1147 755 462
260 176 72 110 42 112 156 148 606 1027 1214 1087 1302 1341 1115 845 808 1167 885 1002 1129 1462 1006 1249 1335 1224 907 940 884 1144 1034 619 470 502 534 1071 1552 1082 1535 1863 1243 795 814
141 75 9 23 47 41 45 146 240 723 934 750 904 742 528 397 341 173 176 354 679 796 847 781 592 481 361 481 459 527 614 748 592 415 513 1099 1680 1668 1741 1729 2048 1096 883
40 0 0 0 90 16 52 83 114 114 398 476 525 547 332 233 115 32 2 161 361 427 517 351 128 60 0 0 21 96 454 546 625 496 762 1120 1664 1568 1470 1630 1455 1365 1278
0 0 0 0 20 16 45 83 60 49 56 134 153 91 185 74 2 0 0 19 231 226 302 191 121 56 23 37 0 8 112 480 791 590 394 659 1658 1699 1551 1418 1464 1438 1354
0 0 0 0 1 0 20 20 84 24 2 1 32 4 15 52 4 12 11 42 194 205 153 114 86 55 76 77 93 76 184 183 295 603 524 541 433 1302 1677 1834 1623 1938 1649
0 0 0 0 0 0 4 140 218 100 19 0 3 5 0 104 26 72 49 106 66 74 77 27 18 0 0 0 27 94 327 323 508 675 673 673 511 513 843 1728 1492 1499 1427
0 0 0 0 0 0 26 135 205 91 50 11 0 0 13 115 141 48 62 22 15 37 25 8 0 0 18 15 5 21 77 183 257 402 478 482 745 820 895 1233 1478 1595 1637
0 0 0 0 48 260 112 68 8 0 26 17 15 22 32 149 140 63 55 3 4 70 74 33 24 15 22 33 9 342 498 292 248 297 312 426 716 613 1018 993 841 1202 1498
0 0 0 0 86 69 0 0 0 0 1 1 0 7 14 6 52 40 41 20 5 30 115 92 139 76 57 1 116 155 34 3 7 5 74 214 312 445 564 840 906 961 986
0 0 0 0 24 151 87 0 0 0 0 0 6 0 4 8 32 32 23 0 0 16 54 137 262 69 30 55 197 52 75 0 0 11 7 117 101 259 330 352 488 420 414
3 94 0 19 9 10 308 0 0 0 0 0 0 8 6 36 50 87 103 51 39 65 138 158 191 214 181 144 73 92 11 0 1 8 7 7 4 6 31 49 77 71 79
175 240 8 112 0 0 108 0 0 0 0 0 0 51 92 265 219 167 77 68 82 47 46 88 58 89 67 134 51 60 0 0 0 4 11 8 6 6 10 8 6 3 0
225 379 12 3 8 495 26 0 0 0 7 20 53 24 58 75 119 126 109 100 93 85 134 116 299 119 61 99 119 31 37 1 0 0 7 9 5 2 10 8 18 24 25
795 509 315 505 815 651 0 0 206 109 156 223 69 7 13 28 69 121 97 68 63 49 73 117 102 120 133 126 31 15 28 62 2 0 9 13 6 4 3 3 4 2 15

GFSSE_con_sbcape_063.txt.gz
CAPE
1450 1597 2910 2687 2053 1854 2032 2201 2419 2865 3117 2997 2888 2385 2230 2043 1892 1742 1610 1535 1542 1758 1589 1333 1640 1373 1401 1279 836 821 665 777 561 673 785 1081 496 683 415 603 301 0 7
1528 1470 2733 2920 2378 1862 1955 2248 2364 2768 2920 3010 2864 2599 2307 1956 1944 1799 1792 1714 1600 1477 1592 1563 1537 1512 1447 956 751 668 1032 1129 796 1068 915 286 914 947 1056 553 0 0 885
1658 1602 1941 2821 2679 2156 2136 2293 2328 2346 2300 2351 2593 2199 1953 2155 2130 2133 1813 1769 1627 1524 1603 1659 1558 1455 1287 726 570 582 1164 962 1149 991 963 1 14 418 216 0 769 0 465
1735 1748 1927 2792 2684 2603 2577 2636 2554 2500 2165 2411 2229 2272 2429 2441 2238 2007 1722 1720 1663 1469 1722 1656 1583 1119 923 726 1135 836 930 942 1001 1002 556 2 22 652 908 65 851 434 728
1808 1834 2108 2886 2892 2073 2375 2903 2830 2654 2668 2405 2505 2544 2477 2220 1994 1909 1849 1861 1522 1685 1772 1680 1180 924 1024 957 1312 1452 1344 1275 1093 824 578 422 8 685 771 3 368 1074 752
1695 1723 2630 2542 2675 2341 2136 2509 2700 2788 2725 2431 2530 2304 1955 1924 1894 1937 1686 1796 1769 1819 1706 1484 1163 901 1468 1258 1545 764 995 1035 801 612 730 730 3 468 341 724 317 748 553
1672 1652 2152 2618 2824 2738 2590 2257 2549 2531 2721 2440 2043 2109 1533 1615 1474 1507 1497 1607 1574 1672 1606 1540 1551 831 1171 1097 1108 891 1095 873 265 347 607 363 271 639 856 1 694 694 513
1544 1660 2155 2291 2340 2636 2200 2275 2327 2171 2236 2107 2112 2065 2047 1787 1742 1910 1674 1508 1540 1552 1745 1549 1170 1133 1255 1212 855 969 859 684 898 701 383 563 851 718 806 317 1 418 1203
1623 1974 2281 2174 2220 2199 2269 2283 2190 2093 1852 2006 2176 2143 2007 2059 2009 1890 1836 1759 1601 1520 1372 1472 1178 1522 1165 1074 842 916 1056 1064 910 900 593 392 1175 481 775 499 635 518 292
1709 1961 2162 2301 2324 2275 2124 2039 2038 1963 1865 2025 2072 2050 1830 1870 1769 1811 2132 1921 1723 1762 1633 1484 1460 1441 1376 1032 835 979 1005 1030 1173 975 918 605 1331 1060 616 629 769 307 142
1950 2147 2221 1751 1942 2365 2354 2267 2145 1919 1968 1925 2023 2034 2011 1795 1495 1632 1716 1880 1863 1855 1609 1557 1429 1602 1605 1543 1171 928 871 871 773 883 1074 1040 1162 1337 997 937 759 1003 369
1850 1805 1782 1782 1518 1402 1842 2073 2118 1973 1964 2102 2037 2143 2199 1947 1922 1680 1523 1613 1561 1453 1453 1561 1372 1478 1603 1047 997 1157 674 709 685 899 1098 994 1160 1215 1261 1751 1271 939 612
1550 1381 976 756 344 733 1131 2129 1969 1818 1979 1841 1897 2061 2061 1949 1798 1752 1506 1271 1508 1555 1106 1459 1380 1138 978 1333 977 1020 974 604 531 646 671 1022 1384 1208 1296 2109 1598 1038 735
1384 1005 688 363 49 101 119 1457 1909 2194 1982 2134 1873 2045 2316 1957 1949 1718 1479 1395 1869 1908 1641 1504 1182 1491 1327 1240 1193 1277 1083 813 523 560 619 892 1641 1377 1224 1386 1558 1109 1128
1101 818 598 265 183 97 184 975 1494 1697 1743 1974 1923 2084 2081 2052 2086 1619 1319 1394 1351 1713 1711 1672 1458 1280 1259 1041 1058 979 886 703 773 549 472 893 1495 1598 1590 1136 1346 1523 1107
1120 957 455 69 90 115 149 262 416 271 274 626 1568 1266 1732 1923 1687 1310 1304 1003 1290 1434 1436 1351 1543 1275 878 509 523 776 865 1047 1334 1327 878 665 1453 1717 1521 1720 1820 1597 1393
787 329 51 21 111 95 108 330 326 198 298 515 723 325 400 277 111 182 562 443 1167 1195 1459 1710 1301 882 772 723 731 601 346 733 801 1469 1683 1315 951 1268 1822 1608 1832 1676 1785
1048 246 3 17 147 214 151 275 515 544 382 250 237 75 22 119 133 79 234 370 476 831 1147 1079 969 569 429 405 426 422 461 636 975 1359 1456 1532 1395 1351 1464 1549 1760 1845 1803
372 436 141 64 154 47 100 301 525 748 784 519 335 265 120 37 395 430 130 209 719 877 1022 939 751 542 464 507 418 229 311 411 816 800 1242 1543 1565 1436 1332 1321 1577 1694 1882
158 84 79 40 77 502 670 434 468 402 251 184 229 328 238 120 136 593 429 324 404 317 320 477 539 508 470 515 549 392 679 646 1094 1052 1128 1182 1330 1442 1481 1745 2348 1248 1795
20 68 52 48 480 980 793 485 161 201 209 202 218 463 447 547 350 252 163 309 286 267 442 675 669 672 721 759 153 730 830 777 963 734 264 700 1164 1284 1409 1699 1960 1624 1363
193 60 0 3 1157 1096 764 243 136 235 148 366 285 107 51 167 188 184 92 130 718 407 486 538 697 765 845 45 123 241 782 323 428 235 224 337 909 1169 1355 1406 1539 1587 1650
281 195 34 54 1351 1185 1210 119 148 105 86 193 211 115 38 40 39 189 448 485 510 430 222 478 622 703 826 177 236 1116 788 201 302 194 178 156 193 230 209 442 666 685 796
429 460 797 169 1192 1146 1372 254 211 165 173 139 289 395 305 156 194 501 625 523 984 901 812 706 1263 1320 1442 336 731 950 652 339 319 237 161 85 63 112 309 104 112 186 370
668 818 626 887 1167 655 1483 975 191 415 354 250 631 833 898 479 283 226 162 264 520 406 246 141 412 200 496 1320 987 711 651 296 257 348 88 92 14 8 75 126 136 194 363
879 974 909 592 696 716 1789 1164 393 1178 958 920 513 614 703 632 584 569 191 223 332 276 415 537 571 1209 1164 1016 987 937 765 623 510 699 393 144 29 8 7 7 11 196 289

GFSSE_con_sbcape_069.txt.gz
CAPE
1458 1451 2762 2353 2513 2600 2561 2685 2865 2695 2387 1994 1739 1841 1971 1863 1759 1834 1781 1586 1400 1039 1369 1163 1145 1359 1385 1324 1029 619 367 728 1269 1357 1162 914 1053 908 661 406 776 145 101
1628 1306 2601 2641 2409 2603 2764 2802 3052 3026 2312 1955 1907 2027 2114 1979 1794 1969 1652 1691 1509 1536 1543 1631 1311 1390 1269 1017 830 916 674 794 1011 1000 504 778 528 602 82 104 708 46 313
1544 1555 1307 2683 2383 2474 2730 2866 2753 2790 2102 1872 2051 1989 1985 1941 1779 1610 1779 1725 1621 1448 1465 1592 1581 1379 765 923 819 1254 977 1122 1010 315 835 864 856 541 0 126 1265 403 850
1396 1639 1093 2655 2651 2316 2584 2698 2733 2330 1997 2193 2004 1860 1925 1951 2092 2177 2014 1702 1670 1321 1435 1517 1482 1290 693 658 1199 853 1051 816 1008 855 497 19 92 36 765 97 643 1095 1152
1169 1281 2060 2524 2249 2187 2382 2548 2588 2530 2268 2171 1887 1878 1851 1839 2021 1705 1693 1688 1528 1636 1615 1530 1257 992 852 958 1063 985 959 1023 1127 1111 47 353 133 218 561 661 501 769 661
950 1770 2274 2672 1987 1994 2099 2164 2294 2413 2345 2159 1985 1864 2122 2092 2002 1728 1889 1651 1594 1274 1648 1384 955 846 1171 1379 1096 1109 1199 1136 887 337 151 139 997 432 30 458 983 770 454
1956 2354 2157 2878 2673 2321 2084 2095 2386 2303 2195 2211 2078 1954 1997 1850 1804 1792 1677 1795 1653 1604 1599 1316 864 1354 1294 1396 1085 1267 1130 747 917 50 37 18 909 658 694 420 860 653 483
987 1854 2215 2566 2466 2230 2187 2153 2212 2379 2294 2297 1712 1616 1764 1835 1593 1676 1540 1436 1546 1909 1596 1422 937 1560 1523 1408 711 954 831 754 401 33 24 479 890 725 374 80 938 483 97
1208 1820 1931 2005 2282 2048 2075 2145 2127 1936 2025 2045 1890 1692 1520 1531 1465 1567 1385 1452 1305 1524 1756 1187 1196 1282 1199 1055 1001 960 968 1107 1166 775 20 556 1157 663 1097 186 24 405 976
1286 1887 1854 2731 2104 2009 1570 1976 2128 1865 1816 1999 1782 1625 1839 1752 1974 1945 1813 1563 1492 1310 1711 1454 1550 1304 1390 1308 980 933 966 1124 857 573 80 506 1278 518 968 558 306 776 225
1621 2256 2005 1797 1329 1219 1831 1851 1848 1669 1326 1490 1469 1266 1277 1564 1631 1737 1490 1669 1711 1362 1322 1524 1324 1645 1256 1219 1003 830 777 440 535 568 602 1454 1653 657 611 725 642 654 342
1786 1688 1705 1755 1079 707 1090 1818 1856 1367 1218 1185 1356 1656 1378 1535 1891 1772 1367 1627 1720 1606 1416 1380 1541 1549 1605 432 741 905 463 630 689 504 1322 2009 1893 953 1152 1270 837 821 815
2029 2228 2154 1993 823 978 1072 1884 2433 2518 1825 2583 1450 1689 1977 2120 1503 1313 2541 1222 798 1643 1401 1193 1259 975 506 738 729 682 81 574 610 753 1380 2117 1862 1155 1170 1500 1652 1179 908
2026 2088 1704 2192 1113 618 860 832 2096 2390 2234 2736 2128 2214 3238 2840 2301 2410 1209 1970 2660 1504 1684 1885 1258 1285 1687 1540 1516 1049 347 731 778 687 1751 2077 2045 1526 1327 1444 2146 1914 1416
1985 2077 2029 1830 1434 1030 976 1103 806 1321 1126 1418 1616 2355 2140 1600 1724 1321 2172 1811 1671 2338 1792 1620 1766 1693 2030 1615 1140 1864 539 465 400 941 1350 2495 2111 2158 1711 1647 1605 1803 1649
2248 2050 2164 1743 1839 1184 699 947 956 1234 2061 778 1768 1707 1856 1929 2034 1228 1293 692 1392 1581 1572 1464 1655 2404 1465 1606 1395 1937 1605 1285 466 397 505 1652 2149 1848 2138 2008 2319 1827 1736
2297 1995 2062 1949 1150 948 1185 870 890 842 1637 1606 1642 1929 1487 1511 2550 2499 932 895 1324 1739 1820 1861 2106 1455 1435 1767 1141 1602 906 982 1115 1304 754 907 1442 1923 1958 2353 2344 2266 2294
2220 2032 1843 1035 1266 1183 1129 1124 1030 835 762 625 577 590 1272 1446 1457 1457 1016 745 856 1470 1236 1170 1296 2337 1637 1470 1465 1327 1244 1588 1463 971 1383 1879 1706 969 1624 2052 2233 2039 2120
2254 1917 1620 1005 1334 1473 1417 1130 1674 1483 1123 574 607 1575 1290 1364 1061 1489 647 441 793 1172 1311 1729 1527 1755 1655 1274 1255 1315 1308 894 1201 628 1015 1396 2228 1573 1526 1601 1855 1654 1926
1418 1736 1598 1326 1340 828 1059 1509 1402 1729 1638 1654 1613 1662 1060 1194 648 425 601 537 631 457 726 1810 1374 1349 1236 1005 756 686 1579 1203 1098 1097 1045 1034 1765 1612 423 484 1214 1224 1784
1186 1419 1823 1332 1415 1502 1754 1424 910 442 931 820 944 1229 1328 1284 567 721 836 1901 1046 590 1193 1313 1802 1550 720 953 1465 519 475 609 413 778 1546 1586 1732 1704 1619 1305 3142 1297 1720
1381 1384 1553 1433 1533 2187 1741 1058 637 913 668 901 1089 1042 1081 1041 1334 1358 893 502 689 676 1179 801 787 749 673 1186 1053 1495 212 371 668 973 1997 1685 1250 1631 1341 1670 1700 1882 2320
1553 1384 1476 1500 2122 2285 1611 1075 1219 1178 1146 918 1288 1265 814 882 921 1175 442 465 693 458 286 643 1257 1479 1982 2119 1612 985 343 499 197 1511 1217 757 734 868 1501 1257 1282 1518 1935
1708 1546 1383 1451 2129 2283 2007 932 1225 1503 1436 1984 928 848 786 582 573 756 927 637 276 309 699 284 1591 2111 2126 1793 1530 810 635 553 105 172 780 777 560 676 1165 1420 804 1029 1405
1790 1669 1382 1526 1791 2272 2140 1411 1239 1360 1124 555 634 1310 1150 851 547 291 123 393 328 1001 1706 1651 1745 1908 2172 1887 1909 561 548 295 175 447 273 839 212 79 56 251 1074 1288 1266
1939 1831 1780 1778 1934 2451 2313 2054 1793 1553 1221 832 1511 1308 1334 1027 1155 540 152 312 216 488 905 903 1079 1029 1299 1310 576 190 377 1344 1293 1045 1300 938 457 7 6 8 52 717 981

GFSSE_con_sbcape_072.txt.gz
CAPE
1017 1530 3091 3183 3304 3397 3156 3174 2898 2612 2146 1951 1806 1868 1773 1618 1583 1878 1657 1363 1106 1194 1233 1260 1287 1371 1346 1157 583 305 1029 1261 1226 886 1141 970 611 1012 1020 577 753 17 592
927 1270 2985 3166 3263 3287 3126 3372 3045 2611 2306 2069 2262 1943 1943 1734 1843 1627 1613 1443 1307 1359 1607 1206 1268 1353 1052 895 715 430 498 1183 1149 1236 758 623 751 46 736 908 536 0 25
773 1040 1768 3048 3143 3103 3035 3454 3294 2970 2119 2142 2413 2066 2015 1859 1567 1424 1472 1641 1556 1419 1602 1593 1337 1082 1017 889 1121 755 1148 1209 1253 686 1094 242 144 0 572 424 207 1095 788
1033 466 1123 2875 3067 3084 3114 3422 3247 2836 2169 2299 2540 2092 2020 1853 1720 1740 1640 1568 1237 1437 1469 1500 1464 1011 701 985 1065 1079 876 984 898 549 798 128 0 406 117 1203 1155 858 69
1449 671 1383 2843 2857 2586 3017 3280 3094 2826 2685 2525 2213 1991 1727 1859 2107 1894 1665 1441 1721 1377 1586 1671 1357 710 718 1136 995 1004 972 993 1003 1073 893 864 0 773 327 486 611 761 778
899 1450 2225 2678 2195 2321 2584 2881 3088 2972 2849 2376 1980 1810 1989 1841 1796 1837 1568 1491 1632 1647 1665 1284 894 937 1274 987 1114 1073 1026 984 835 1102 622 971 0 469 1020 984 1123 659 113
486 1701 1433 2658 2565 2222 2226 2502 2564 2715 2544 2338 1990 1839 1892 1877 1842 1447 1637 1660 1343 1488 1515 1069 858 1178 1427 1536 1249 1252 1259 918 705 486 177 785 385 837 331 901 1116 623 724
1677 1637 1352 2572 2757 2465 1998 1878 1987 2141 2085 2144 2014 1630 1677 1659 1807 1682 1665 1589 1587 1437 1502 1160 1213 1478 1502 1015 993 947 878 641 774 491 440 342 858 904 412 892 557 134 73
1878 2149 1917 1748 1967 2065 1971 2060 2083 2083 2099 2039 1852 1693 1729 1627 1493 1635 1478 1324 1371 1521 1695 1495 964 1633 1417 1037 754 823 1016 1077 815 1105 444 280 1662 1655 409 7 850 948 528
1669 1978 1536 2016 2626 2086 1654 2296 2156 1890 1916 1987 1849 1757 1692 1473 1485 1478 1740 1954 1339 1496 1599 1257 1116 1298 1203 1102 1064 966 1000 989 556 595 596 162 1652 1358 1373 150 17 222 767
1713 456 0 260 1185 1765 1634 2169 2063 1596 1710 1760 1805 1522 1717 1646 1732 2013 1699 1924 1457 1315 1556 1282 1532 1658 1488 1376 1111 988 830 356 382 601 318 1042 1525 1571 1256 797 379 877 240
1787 440 0 180 631 1032 960 2026 2108 1571 1258 1423 1533 1771 1449 1585 1737 1838 1848 1510 1616 1395 1342 1425 1780 1623 1293 805 985 1040 631 260 439 864 720 1577 1557 1449 993 1450 1071 815 524
1846 1738 1049 1190 731 444 558 715 1720 2469 1891 2271 2266 2345 1985 1992 1661 1625 1519 1447 1789 1734 1293 1496 1570 1291 1057 758 286 532 250 178 450 561 1233 1816 1860 1875 1260 1791 1677 1243 849
2430 2335 1975 1542 1377 1166 1233 906 1904 1233 1773 2147 2120 2346 2468 2243 2303 1955 1495 1995 1568 1582 1662 1252 1123 964 926 1102 506 406 500 369 114 369 1311 2198 2180 2107 1763 1866 2290 1871 1370
2420 2601 2542 2447 1939 1424 1501 1983 1960 1533 2008 1688 1647 2497 2284 2404 2109 1626 1755 1846 2075 2174 1351 1416 2135 1034 1274 1896 1548 1092 1230 1204 871 595 1382 2384 2307 2154 2310 1974 2154 1968 1895
2237 2909 2558 2390 2060 2015 1658 1396 1617 1599 1449 1845 1949 2061 2581 2083 2456 1997 2300 1276 2081 1602 1530 1778 1380 1824 1204 1769 2023 1832 1120 1061 1241 1176 1243 1759 2049 1980 2363 2354 2530 2477 2152
2499 2992 2528 2080 2114 1589 1417 1448 1589 1687 1658 2195 1338 1154 1906 1864 2473 2491 2455 2001 1553 1757 2510 1198 1602 2164 1561 1763 1788 1320 1430 1027 929 845 940 1308 1609 2159 1962 1871 2348 2439 2385
2666 2932 2715 1944 1893 1767 1690 1689 1587 1068 1181 1595 1535 1465 1999 1860 2332 2461 1492 1131 1827 1550 2414 2353 1346 1958 2197 1650 1352 1677 1409 1303 1235 1179 1344 954 1421 1054 1557 2047 1893 1372 1615
3184 3010 2692 1973 2035 1943 1932 1904 2129 2509 2072 1941 1482 1899 1889 1691 2019 2274 1701 1872 1655 1900 2018 1853 2130 2158 1645 1275 1345 639 879 1696 1012 780 908 1105 996 1603 1048 1681 1433 695 748
3069 2616 2307 1864 2318 2364 2056 2362 1929 2259 2099 2314 2122 1775 1175 1648 1864 1486 1426 1339 1095 622 1416 883 1446 1556 1848 1731 1086 683 1390 531 1281 862 1130 671 1677 1638 1146 1204 101 151 624
2213 2798 2514 2316 2263 1696 1899 2039 2083 1766 1554 1799 1815 1720 1238 662 1062 1130 819 1411 1063 555 272 1074 1451 679 1457 1283 386 757 826 697 1158 840 663 1362 763 1063 297 1439 782 672 312
2016 2352 2704 2398 2453 2275 2509 2414 2574 2477 1885 1834 2287 1778 1674 988 455 738 877 703 1501 1288 1246 971 987 988 1183 643 1049 863 730 848 767 815 1347 964 833 922 983 1217 1132 1034 1034
2109 2418 2432 2416 2416 2723 2743 2304 2453 2137 2193 1886 1911 2032 1659 1166 816 460 486 1031 887 787 537 626 719 955 623 484 1112 656 429 191 821 1001 326 545 603 819 1355 964 1049 1206 1254
2257 2153 2604 2514 2596 3135 3230 2275 2259 2230 1826 2013 1657 1911 1687 908 996 599 543 690 800 669 356 156 70 110 282 375 803 640 724 537 179 37 72 10 342 673 667 760 721 749 660
2370 2182 2222 2515 2916 3388 3433 3208 2493 1973 1783 1802 1558 2075 1866 1615 912 764 355 681 634 670 446 441 412 615 426 612 569 626 594 473 153 95 41 61 97 10 0 0 98 678 633
2338 2300 2061 2573 2662 3390 3304 2948 2709 2281 2090 1835 1675 1670 1731 1680 1184 853 481 393 224 158 30 224 347 244 392 717 703 110 51 165 138 103 152 293 188 3 4 4 2 211 221

GFSSE_con_sbcape_075.txt.gz
CAPE
1462 2597 3387 3715 3530 3317 3145 2919 2427 2064 1892 1824 1826 1698 1553 1683 1822 1689 1454 1202 1278 1243 1219 1375 1398 1391 1240 554 393 1261 1248 802 1056 730 689 1015 914 703 801 536 294 599 329
1684 2556 3369 3574 3399 3391 3549 3480 2953 2337 1985 1817 1913 1837 1640 1822 1751 1642 1564 1328 1406 1481 1259 1135 1403 1096 779 549 213 772 1289 1313 1443 1277 649 491 220 412 1397 430 0 628 1071
1687 2444 2723 3282 3400 3375 3588 3610 3078 2537 1901 1846 1980 1999 1772 1778 1730 1547 1709 1545 1610 1528 1422 1302 1415 1067 917 789 741 891 1202 993 1617 735 419 0 3 681 36 281 647 125 999
1436 1756 2423 3205 3398 3265 3581 3629 3363 2598 1837 2056 2064 1979 1850 1672 1569 1731 1613 1626 1489 1464 1596 1517 1143 916 853 1191 1013 1145 1111 826 769 950 169 0 0 653 1101 849 615 314 505
651 1340 2334 3308 3182 2740 3124 3358 3247 2864 2517 2235 2017 2027 1720 1796 1823 1821 1631 1682 1382 1513 1557 1560 977 547 1295 972 1050 1021 901 907 690 651 699 0 68 0 879 1119 658 381 666
437 1363 2908 3121 2660 2598 2716 2884 3053 2837 3013 2645 2091 1873 1818 2003 1899 1742 1539 1589 1464 1586 1642 1213 581 791 1200 1102 974 919 861 864 753 576 0 16 333 699 729 854 972 405 635
994 1438 2424 3058 3099 2996 2926 2611 2787 2870 2821 2296 2032 1798 1784 1656 1972 1794 1682 1672 1390 1700 1557 767 621 1331 969 995 1020 1000 1082 866 550 241 5 0 389 1553 1341 1258 749 168 511
1261 1339 1716 2640 2851 2539 2323 2438 2445 2396 2271 2125 1850 1652 1523 1480 1610 1553 1780 1779 1423 1649 1449 1167 1441 1333 1548 1317 1281 1121 773 588 711 244 148 0 708 1260 1054 1046 427 410 849
815 1188 1656 1972 1789 1954 2029 2016 2071 1965 1977 2205 1733 2053 1919 1787 1856 1660 1768 1704 1573 1383 1675 1043 1482 1699 1585 796 775 885 774 950 613 313 39 79 1410 1389 994 1004 348 138 163
91 0 946 1339 1421 1480 1585 2462 2428 2101 2105 1922 1554 1573 1796 1560 1597 1622 1911 1906 1444 1630 1610 1598 1049 1548 1368 999 848 854 960 1020 512 317 45 79 1389 864 123 749 840 1108 604
0 0 0 1123 1227 1351 1324 1755 2663 1931 1859 1924 1493 1733 1692 1019 1166 1394 1493 1620 1432 1567 1587 1400 1186 1493 1468 1173 1175 1201 1087 354 81 123 16 1311 1761 1817 656 244 351 285 884
0 0 0 10 947 947 1340 1399 1367 1201 1202 1174 1387 1151 1065 1128 1053 1414 1543 1970 1591 1486 1668 1532 2079 1780 1322 895 893 1138 676 309 17 335 13 1480 1712 2161 989 1001 829 943 327
0 0 0 31 252 252 535 899 1224 1155 870 792 909 1057 861 899 871 920 948 1150 1101 1549 1051 1617 1712 1481 1081 596 438 527 460 130 26 273 593 1650 2017 2133 1399 1529 1209 796 759
21 0 0 646 315 140 125 251 813 930 796 898 1030 1137 877 1036 765 743 726 896 1084 1010 870 878 855 943 605 538 362 269 165 97 302 513 722 1772 1867 2019 1829 1818 1614 1210 991
1004 422 609 683 650 583 705 348 869 632 778 963 624 966 886 856 848 825 682 859 742 727 865 681 729 578 580 665 693 668 332 320 769 369 634 2067 1985 1925 1809 1744 2001 1652 1553
1750 1510 1063 1005 786 688 547 578 469 479 632 842 704 802 967 922 1032 888 719 611 616 1129 663 617 486 435 680 777 646 543 454 632 494 522 728 1363 2169 1924 1786 2253 2362 2301 2084
1873 1930 1666 1283 1068 1113 867 486 278 530 535 518 449 366 901 730 765 991 754 577 873 850 788 627 728 780 609 675 576 569 826 679 408 465 768 732 1737 2175 2004 1751 2107 2305 2252
1821 1697 1422 1508 1165 700 675 716 840 707 807 728 449 346 187 732 778 631 677 362 624 888 824 402 572 663 410 695 569 676 594 568 797 677 649 779 954 756 1962 1994 2010 2149 2260
1998 1695 1350 1146 1009 818 909 1060 998 663 481 431 536 380 542 580 970 652 597 557 762 501 863 651 544 621 620 272 343 462 668 805 541 630 595 602 688 752 527 1095 1584 1729 1268
1943 1526 1150 1148 1061 1133 994 1132 1011 1299 1067 1237 1085 741 659 491 626 1163 733 448 232 108 213 438 266 423 617 500 702 452 281 295 308 576 250 355 668 688 522 408 346 480 932
1737 1330 897 1348 1173 1305 1290 1363 1262 1172 1068 1195 939 1083 761 536 555 528 411 349 283 182 23 40 329 360 307 134 36 24 105 337 47 186 168 262 179 594 473 120 94 39 574
1791 1581 1124 1533 1119 770 1022 1284 1336 1163 962 919 1087 948 921 759 362 551 363 211 558 493 169 157 276 186 219 96 1 41 49 1 151 193 222 156 172 455 224 98 484 467 143
1714 1885 1460 1629 1179 996 1471 1505 997 745 835 895 918 1000 950 820 463 310 383 198 296 571 241 156 67 88 27 51 143 34 31 2 7 80 8 0 28 245 245 165 287 395 490
1500 1896 1714 1657 1516 1337 1771 904 853 662 510 859 819 1081 811 739 423 187 220 217 269 213 156 158 115 96 103 109 46 146 67 9 0 0 1 0 42 66 12 11 67 168 232
1635 1720 1759 1665 1444 1679 1994 1159 1005 956 673 580 807 911 841 538 436 434 185 181 277 386 226 187 134 79 2 5 16 84 123 78 14 0 0 0 65 0 0 0 0 61 121
1633 1755 1729 1682 1777 2256 2177 1487 1526 884 674 711 608 680 915 742 500 356 57 65 272 319 174 98 104 119 129 87 116 78 27 7 1 3 13 21 43 1 1 0 0 20 23

GFSSE_con_sbcape_078.txt.gz
CAPE
2043 2737 3531 3401 2799 2668 2487 2288 2006 1891 1973 1973 1727 1723 1982 1816 1706 1550 1548 1505 1323 1428 1192 1301 1389 1200 778 853 1251 785 860 844 1155 1107 1207 772 931 1137 676 580 571 635 1252
2203 2661 3426 3303 3058 2693 2658 2394 2081 1982 1921 1962 1853 1706 2164 2083 1744 1688 1528 1843 1429 1600 1371 1425 1260 835 413 606 1347 1296 928 1219 1183 1093 783 868 556 740 245 384 1051 180 882
2272 2652 2868 3189 3182 2894 2877 2606 2220 2019 1820 1979 1964 1730 2072 1775 1728 1668 1577 1732 1611 1354 1327 1460 851 744 500 287 1191 1221 1283 1148 1358 754 377 56 202 835 42 99 1097 1133 895
2240 2309 2476 3186 3377 3368 3118 2766 2430 2014 1813 2012 2108 1834 1628 1496 1448 1733 1915 1645 1721 1611 1421 1585 957 980 1052 888 1173 1138 932 1127 998 410 0 0 189 348 877 886 474 1188 1229
1834 2109 2520 3587 3542 3004 2915 2919 2734 2498 2023 2086 2085 1869 1873 1830 1931 1661 1607 1516 1452 1655 1588 1378 775 748 1360 1180 1201 1105 877 892 1009 93 0 0 119 1077 991 388 83 1015 1017
1574 2031 3242 3448 2946 2970 2851 2661 2530 2449 2267 2172 2105 1760 1969 2013 2083 1706 1763 1566 1565 1659 1616 989 524 1086 1207 915 1182 1051 1099 825 788 505 2 254 0 830 848 704 1004 966 1216
1265 2162 2708 3321 3304 3301 3056 2922 2498 2523 2365 2162 2045 1754 1917 2096 2058 1756 1656 1687 1646 1693 1109 722 771 957 1166 1126 1136 1045 788 770 476 0 0 217 305 1734 1249 1179 458 434 366
1557 2050 2335 2955 2817 2761 2643 2517 2237 2244 2213 2114 1889 1654 1528 1953 2002 1829 1879 1472 1738 1760 904 714 1147 1038 980 959 1089 996 782 851 424 0 0 27 1556 2267 1626 988 447 294 968
1382 1489 1916 2129 2147 2433 2513 2391 2460 2380 2275 2061 1844 1617 1485 1700 1714 1820 1887 1887 1540 1721 1141 1004 1616 1438 1564 1336 1058 1042 707 837 234 101 0 0 1620 1850 1537 921 333 806 1030
776 1513 1578 1503 1401 1482 1672 2237 2164 2226 2030 1884 1639 1699 1657 1877 1921 1828 2141 2256 1698 1414 1751 952 1692 1779 1712 1021 645 624 882 1024 260 153 0 102 1278 1328 1095 472 372 160 790
8 214 838 1363 1151 1201 1480 1870 2640 2056 2114 1818 1567 1555 1748 956 1314 1469 1533 1609 1546 1714 1590 1708 1052 1658 1425 1293 1129 1213 1214 411 129 13 0 735 1180 1027 730 1071 1166 1230 366
0 0 0 838 1067 1146 1450 1567 1733 1293 1240 1242 1254 1226 1059 802 802 1393 1401 1577 1535 1624 1669 1471 1453 1306 1238 822 723 1167 649 448 58 55 0 1115 1714 1617 552 801 616 680 1434
0 0 0 16 778 812 1296 1100 1025 879 844 866 1074 906 697 876 849 1324 979 1316 1100 1503 1247 1772 1551 1501 987 684 494 453 461 367 27 71 346 1351 1665 2046 1007 552 986 707 358
0 0 0 0 282 175 312 798 966 881 685 566 692 819 674 558 608 568 741 816 947 875 803 925 1013 1141 947 740 395 174 254 85 6 92 204 1144 1603 2105 1489 1083 830 951 728
0 0 0 95 79 21 41 157 629 721 648 673 562 761 659 554 624 518 560 636 805 644 654 541 620 713 740 491 411 456 279 124 137 314 289 1631 1626 1647 1692 1642 1302 1032 936
0 0 0 456 160 172 365 138 393 405 468 483 526 482 779 491 562 500 505 402 653 495 550 381 361 417 511 467 501 568 591 477 700 435 395 924 1842 1799 1841 2510 2436 2025 1620
592 336 600 516 344 306 329 191 156 258 308 512 593 483 694 618 520 668 450 426 427 418 574 468 397 372 306 266 523 398 486 520 344 353 526 585 1208 2184 1827 2203 2451 1948 2594
1275 1183 952 1160 689 591 480 293 164 267 323 383 402 322 608 690 408 512 484 319 291 399 510 304 310 575 439 256 365 346 449 492 466 393 348 559 554 1073 1454 1852 1713 1787 2073
1539 1387 1211 1109 772 534 382 403 488 396 455 452 451 240 180 225 552 466 149 189 213 166 298 302 159 205 168 235 407 254 192 417 440 416 588 387 627 679 381 1141 1634 1370 1777
1457 1261 943 944 622 402 489 628 534 564 318 228 308 310 202 230 497 613 179 225 47 84 90 186 193 231 172 178 340 278 22 76 154 333 353 289 603 793 434 289 380 578 1433
1538 1183 885 781 593 581 513 672 545 880 697 663 657 749 393 407 392 575 191 109 25 1 38 39 63 144 187 121 41 0 1 52 60 3 32 88 139 389 148 266 186 74 111
1367 1086 883 826 638 746 657 710 870 722 672 710 673 698 587 456 365 262 288 100 80 44 3 0 155 120 83 30 24 0 9 0 3 59 30 167 129 135 198 96 26 116 86
1072 785 848 872 673 687 701 742 597 451 464 752 761 715 683 767 586 290 201 129 96 99 60 52 56 61 78 33 55 6 11 1 0 2 0 2 86 25 14 29 134 125 172
1386 951 800 928 695 541 596 959 608 215 147 328 291 407 673 763 557 279 248 84 85 128 111 93 50 35 16 0 15 19 0 0 0 0 0 0 31 0 0 4 3 49 102
1646 1429 1061 1175 849 836 931 1169 487 266 309 341 416 521 511 321 298 252 146 111 109 174 98 91 52 6 3 9 3 0 2 23 0 0 0 0 2 0 0 0 0 16 37
1612 1623 1346 1288 1067 963 1274 809 594 552 346 372 424 440 424 316 180 248 47 48 120 182 190 80 67 65 55 54 11 2 11 14 10 0 2 0 9 1 0 0 0 22 23

GFSSE_con_sbcape_084.txt.gz
CAPE
1000 2076 2985 2338 1794 1938 1928 1948 1891 1930 2327 2664 2887 2453 2181 2002 1954 1885 1762 1663 1509 1355 1316 1282 1172 1233 1302 1370 1132 1054 1300 1180 957 889 1178 1304 1288 1030 795 1027 473 75 328
1218 2187 3059 2682 1979 2024 1936 2338 2102 2248 2133 2351 2596 2494 2270 2061 1701 1756 1796 1549 1447 1427 1446 1328 1055 1263 1226 1223 1196 889 1143 898 993 971 560 638 688 737 737 1230 1029 946 744
1756 2337 2571 2903 2867 2127 1948 2106 2068 1938 1999 2168 2318 2066 2109 2166 1956 1717 1779 1777 1657 1538 1726 1003 709 1097 1105 830 654 1059 1059 1217 1371 855 942 483 303 328 230 763 1281 1246 861
2120 2184 2385 3030 2954 2639 2226 2127 2013 2049 1911 2192 2219 2023 2007 1971 1949 1956 1824 1977 1582 1672 1114 830 489 1013 1296 1361 1305 717 1404 1161 1095 934 330 351 16 299 1075 293 834 971 205
2070 2099 2317 3300 3200 2317 2162 2407 2210 2119 2102 1833 2223 1890 1907 1888 2010 1894 1802 1667 1618 1715 1338 769 532 797 1229 1017 1292 1215 940 649 680 200 50 274 205 82 1077 1153 802 457 556
1878 1731 2589 3258 2971 2442 2273 2096 2011 2063 2215 1911 1744 1599 1636 1785 2088 1807 1806 1859 1787 1664 1279 921 1158 1075 1062 1067 1258 1079 1374 484 272 0 74 395 347 997 595 1231 1234 1131 1172
1799 1687 2354 2979 3343 2490 2719 2242 2159 2138 2183 2100 1958 2002 1988 2002 1821 1856 1665 1852 1639 1601 1175 800 1334 1368 1054 935 926 1030 1031 1074 0 0 0 499 596 1006 302 785 1101 694 325
1729 1945 2243 2838 3180 3062 2602 2307 1911 2182 2215 2161 1928 2121 2094 2198 1905 1810 1645 1818 1724 1610 929 830 1532 1170 1139 1026 875 958 1012 1080 688 0 31 34 257 1343 226 585 1119 1262 664
1779 2279 2226 2212 2359 2488 2515 2298 2024 2134 2285 2184 1872 2100 2219 2262 1886 1873 1865 1828 1861 1125 1022 1306 1214 1271 1319 1078 938 850 877 744 0 0 72 0 985 1377 887 923 623 565 235
1688 1808 1499 1661 2029 1995 2087 2637 2173 2333 2131 2129 1884 1891 1852 2020 2017 2031 2303 2189 1889 1415 858 1219 1422 1198 1339 1228 1111 669 643 981 0 0 13 3 1105 1794 1139 751 373 702 839
1168 1355 906 1417 1305 1594 1705 2042 2582 2100 2067 2101 1890 1805 1755 1376 1811 2113 1787 1849 1835 1782 1078 1486 1848 1608 1767 1100 805 666 810 197 170 9 0 84 1171 1879 1028 876 515 637 769
648 922 810 818 909 954 1567 1670 1812 1664 1580 1362 1506 1327 1193 1027 1063 1341 1857 1715 1771 1596 1751 1393 1440 2115 1733 844 760 786 802 412 267 95 147 247 934 1481 1452 1486 762 334 842
196 524 437 678 732 873 1213 1028 1175 1001 1161 944 1078 893 996 704 1244 1425 1168 1420 1331 1679 1766 1614 1769 1141 1037 760 667 523 447 445 357 80 132 473 1190 1045 1492 1751 846 695 560
0 200 62 404 648 751 1003 1069 1116 866 756 787 813 781 739 583 554 823 943 982 1124 1074 1216 1378 1158 1327 832 706 582 349 333 308 202 3 1 800 1438 1574 1607 1665 1609 1070 1078
0 0 0 48 545 608 853 811 988 865 768 667 648 580 513 575 523 540 595 755 920 898 951 866 1002 896 1056 917 801 573 374 333 318 429 236 744 1751 1474 1607 1487 1015 635 589
0 0 0 0 225 319 617 644 863 891 753 555 499 544 557 422 398 448 495 553 704 750 719 741 764 787 806 773 743 531 636 675 594 347 507 373 2239 1504 1669 1923 1755 1177 994
0 0 0 0 13 112 262 302 430 699 672 609 547 370 560 507 409 427 486 444 561 603 665 543 505 458 494 489 494 475 731 582 666 748 892 566 822 1957 1632 1745 1342 1513 1526
0 0 0 0 2 19 38 32 115 269 508 605 554 496 488 674 475 398 439 462 454 419 567 565 466 392 472 327 430 497 626 306 481 572 533 642 711 571 1455 1674 1346 1312 1513
0 0 0 0 5 0 2 6 19 97 179 286 426 525 540 544 730 492 486 441 414 372 427 545 405 460 420 429 445 466 251 378 434 603 582 518 601 568 697 1047 1318 1206 1692
0 0 0 0 77 8 11 31 45 67 96 154 224 316 457 541 548 554 461 359 202 227 280 356 433 241 287 249 361 704 369 222 132 244 378 514 857 759 1001 873 1066 1157 1424
242 101 82 205 195 70 65 135 97 219 147 140 182 368 348 222 169 462 388 258 243 150 192 176 127 94 190 71 91 97 74 44 69 146 97 128 295 511 753 908 831 640 615
838 621 532 512 243 151 197 107 150 226 255 199 241 298 386 364 290 271 376 264 264 109 26 49 71 79 137 19 101 0 60 16 0 53 26 103 221 269 502 599 433 342 387
1227 1023 822 716 317 190 113 162 131 205 219 387 418 434 506 536 410 337 206 264 142 105 91 45 28 51 101 19 0 51 4 69 0 0 0 0 181 175 349 337 310 331 362
1430 1194 931 703 401 203 124 316 344 397 479 390 514 497 591 575 465 416 273 272 211 111 83 13 2 31 37 92 17 28 0 4 40 4 0 0 29 59 27 10 9 18 80
1550 1268 940 633 453 390 228 351 356 275 221 89 191 355 327 242 405 466 346 281 259 110 96 41 7 6 27 20 58 53 48 14 0 0 0 0 0 20 0 0 0 4 82
1576 1330 945 677 557 440 428 349 389 365 158 99 153 315 235 259 209 308 247 122 177 98 52 5 20 11 12 12 17 57 127 72 43 20 0 0 0 0 0 0 0 4 78

GFSSE_con_sbcape_087.txt.gz
CAPE
980 1342 2501 2835 2252 1956 1954 1973 2493 2792 2423 2869 2808 2668 2145 2018 1729 1783 1810 1640 1695 1410 1270 1316 1269 1350 1336 1270 1483 1349 1442 1225 1088 1089 1124 1183 1270 1033 865 413 454 121 501
1196 1538 2747 2645 2346 1987 1956 2025 2385 2779 2750 2827 2679 2522 2044 2013 2062 1922 2033 1588 1490 1399 1431 1217 1230 1284 1304 1173 1163 1346 1220 1073 1086 1275 1366 1399 1265 917 1234 1032 403 236 292
1335 1577 1821 2325 2293 2539 2653 2362 2170 2598 2277 2552 2780 2598 2236 2356 1953 1707 1659 1555 1486 1660 1293 1080 1242 1223 1128 1065 866 1043 900 972 1250 720 465 143 341 567 1079 1068 1263 1218 1021
1541 1464 1510 2389 2589 2675 2801 2597 2513 2537 2215 2485 2358 2342 2274 2181 1877 1789 1712 1488 1460 1465 1006 608 1093 1211 766 671 1280 1159 1180 821 1064 1126 175 0 0 247 508 1256 1439 854 794
1700 1336 1650 2843 2782 2338 2500 2742 2665 2454 2457 2333 2098 2111 2048 2030 1920 1835 1782 1665 1719 1196 721 481 975 1339 985 1107 844 1517 1147 984 956 543 400 39 0 1115 375 911 792 405 0
1550 1405 2516 2999 2644 2534 2279 2567 2667 2340 2360 2339 2029 1973 1881 2000 1934 1811 1676 1728 1636 1434 694 550 812 1285 999 1307 1186 890 637 651 440 470 584 433 0 645 1165 1246 466 616 792
1682 1510 2241 3211 2917 2722 2598 2416 2716 2609 2034 1744 1795 1611 1800 2188 1937 1867 1870 1866 1746 1513 865 1165 1010 1073 1043 1094 1044 1030 871 296 0 13 308 338 747 1001 1129 1209 1060 1201 1251
1538 1418 2088 2908 3088 2264 2220 2123 2188 2218 2082 1854 1878 2005 1992 1799 2044 1737 1885 1814 1640 1499 820 1242 1459 1114 913 781 657 801 943 1067 204 281 14 530 820 885 239 1114 1030 626 219
1716 1830 2317 2399 2426 2599 2033 2262 2197 2104 2077 1947 2237 2158 2019 2029 1894 1919 1844 1906 1770 1244 737 1421 1435 1131 857 711 828 893 936 905 851 643 385 21 909 871 356 703 1216 1258 611
1895 2282 2659 2555 2534 2356 2357 2053 2605 2724 2419 2187 2055 2270 2356 2168 1788 2153 2280 2305 1885 979 927 1458 1340 1346 1252 879 781 642 676 794 285 503 202 0 979 1298 1313 995 550 611 282
1727 1998 2211 2471 2723 2519 2499 2219 2497 2223 2178 2025 1987 1953 1993 1862 1978 2097 1615 1960 1956 989 993 1355 1246 1354 1234 1029 849 601 774 582 283 304 213 282 833 1375 1723 996 678 449 1055
1320 1744 1930 2012 2214 2309 2383 2347 2319 2023 2103 1971 1873 2010 1809 1975 2153 1863 1629 1730 1828 1667 980 1660 1832 1613 1484 416 501 537 677 543 817 798 626 366 786 1263 1767 1538 1318 631 713
1066 1269 1529 1476 2084 2099 2105 2158 2259 2117 2082 2218 2369 2381 2087 2086 2101 1879 1734 1509 1944 1614 1408 1308 1475 1424 735 446 352 409 471 575 639 813 433 955 872 680 1306 2010 1608 688 545
749 974 1312 1237 1785 1866 2012 1834 2022 2117 2217 1961 2096 2406 2138 1895 2205 2093 1564 1796 2112 1792 1918 1284 1082 1303 1307 987 248 305 505 382 469 548 423 626 1127 1243 998 2052 2082 1014 775
478 647 1101 1305 1598 1769 2052 1898 2255 2256 2032 1961 2070 2098 1943 1731 1660 1633 1526 1288 1680 1674 2041 1923 1667 1522 1169 802 590 622 406 449 553 889 748 745 1683 1873 1699 1934 1743 1489 1260
410 266 884 1093 1365 1648 1840 2163 1996 1693 1750 1998 1831 1790 2088 1714 1641 1244 1623 1733 1587 1792 1939 1729 1934 1605 1277 1275 1196 1026 764 580 1000 1256 992 1028 1232 2104 1730 1716 1797 1625 1474
383 61 522 856 1139 1330 1372 1424 1440 1847 1834 1884 1786 1960 1741 1823 1801 1477 1305 2221 2165 2057 1976 1997 1882 1630 1430 1446 1229 865 778 754 1267 1490 1662 1403 1300 1905 1889 1678 1763 1771 1727
294 52 125 522 792 1164 1248 1322 1230 1242 1571 1543 1692 1419 1709 1693 1750 1697 1432 1586 2108 2115 2311 1712 1526 1229 1284 1540 1593 1390 920 1431 1433 1475 1460 1636 1486 1353 1797 1797 1703 1461 1476
507 74 8 350 625 964 1202 1249 1463 1620 1738 1747 1979 1392 1306 1257 1479 1640 1783 1827 1959 2237 1781 2160 2049 1554 1366 1837 1563 1607 1697 1419 1434 1169 1415 1571 1657 1507 1327 1320 1743 1684 1681
617 123 32 23 346 853 1033 1251 1295 1258 1408 1496 1681 1644 1816 1587 820 1046 1486 1516 1914 1604 1985 1629 1754 1981 1831 2258 1578 1191 1678 1229 1366 1347 1356 1351 1508 1644 1652 1734 1683 1472 1606
656 314 107 84 360 470 745 902 787 540 627 980 1187 1531 1565 1624 1507 1671 1138 1831 1319 1582 1599 1148 1323 1347 1806 1522 1672 1610 1524 1320 1202 1059 1172 1179 1293 1535 1721 1900 2096 1795 1640
1096 701 342 325 751 549 463 589 530 714 848 834 980 1367 1554 1445 1574 1329 1321 1557 1341 845 554 225 518 612 1345 1939 1543 1147 407 440 611 742 927 1049 1139 1191 1216 1435 1606 1715 1563
1668 1264 981 881 1004 961 1001 839 916 1091 1299 1082 1168 1150 1478 1603 1595 1617 1507 1537 1498 1282 1170 1243 700 199 198 683 1272 1345 742 117 240 493 789 697 1026 1166 1190 1401 1391 1329 1345
2019 1825 1508 1386 1376 1297 1313 1129 1122 984 1115 1250 1367 1243 1441 1540 1635 1766 1613 1156 1392 1374 1239 1320 556 143 131 60 339 772 483 376 97 56 576 644 606 942 1150 1145 895 723 678
2172 2080 1942 1869 1739 1588 1397 1334 1322 1182 1200 1439 1517 1747 1877 2054 1796 1466 1695 1588 1631 1415 1282 1145 847 358 19 46 97 1078 1034 897 389 174 64 87 308 503 703 653 371 243 300
2332 2226 2091 2078 2014 1789 1562 1471 1370 1389 1497 1327 1664 1698 1734 1549 1576 1664 1516 1317 1297 1199 967 803 589 198 13 13 129 352 745 534 571 410 177 165 191 181 407 448 178 64 132

GFSSE_con_sbcape_093.txt.gz
CAPE
873 1440 2914 2612 2367 2054 1987 2135 2312 2628 2369 1892 1747 1758 1674 1563 1476 1438 1511 1608 1343 916 1144 1129 1025 783 952 1017 1117 1267 1492 1253 1306 1373 1326 1303 1602 1629 1472 1444 1390 128 1372
1042 1483 2922 2857 2759 2380 2179 2338 2403 2642 2677 2088 1928 1870 1846 1739 1492 1252 1586 1520 1435 1318 1103 1480 1367 1347 1445 1432 1326 1459 1301 1055 998 1254 1337 1086 553 640 389 404 1283 1326 1289
1154 1561 2134 2813 2828 2583 2547 2438 2448 2814 2705 2183 2138 1869 1814 1720 1830 1510 1592 1480 1450 1580 1287 1343 1592 1416 1583 1553 1382 1109 1097 1240 1422 1313 1466 283 824 955 1065 272 518 633 1348
1021 1413 1658 2821 2768 2620 2594 2565 2478 2391 2352 2425 2085 2003 2021 2025 1837 1380 1640 1534 1509 1599 1499 1440 1459 1466 1261 1525 1086 1487 1099 808 922 1270 1141 23 178 1130 1305 1286 1197 1256 723
944 1093 1870 3049 2885 2088 2355 2730 2744 2682 2473 2238 1982 2148 2252 2024 1583 1654 1619 1678 1344 1330 1213 1542 1324 1094 976 1150 1208 875 873 1196 1044 858 49 8 0 1155 1264 1270 992 1154 1098
888 904 2129 2914 2637 2090 2120 2493 2712 2689 2728 2464 2047 2001 1931 1846 1788 1677 1614 1633 1471 881 832 1321 942 715 1279 1378 1235 1585 1213 1265 1096 153 4 30 216 589 1132 502 79 524 763
813 1830 1754 2724 2910 2839 2477 2185 2525 2488 2292 2227 2178 2142 2123 2097 1925 1813 1634 1698 1228 828 784 1502 1365 1460 981 1401 1126 646 597 510 761 252 9 526 1097 1510 1148 409 781 561 903
764 1533 1293 2468 2808 2667 2179 2138 2206 2541 2331 2170 2024 1997 2123 1978 1834 1803 1793 1789 1428 925 794 1469 1381 1419 1269 993 631 624 457 500 128 39 60 1164 1092 1457 1227 1327 1264 1356 880
712 1328 1320 1678 1773 2017 2031 2109 1932 1983 2281 2252 1919 2023 2168 2037 1939 1884 1942 1848 1487 1132 1453 1490 1211 1214 1301 1042 937 924 990 1287 1544 30 43 981 1548 535 431 1159 1159 401 241
1363 1319 1435 1583 1584 1711 1659 2313 2358 1991 1686 1748 1573 1739 1973 2093 1819 1823 1862 1840 1659 1003 1412 1669 1382 1069 987 821 854 997 979 1236 1113 28 63 548 1451 359 388 700 1276 1088 497
1058 1937 2237 2326 1815 1772 1713 1566 2341 2337 1844 1859 1909 1913 2092 873 1473 1666 1597 1933 1726 904 1412 1470 1467 1202 961 861 940 980 775 571 465 54 320 1680 1799 1049 1252 1233 615 561 411
1233 1160 1827 2092 2177 2146 1493 2288 1561 1714 1826 1671 1734 1721 2779 1798 1343 1317 1461 1817 1247 900 1448 1703 1574 1449 1157 497 567 888 462 742 68 64 525 1366 1554 1124 1355 1347 1000 613 442
1413 1151 1628 1984 2306 2005 1935 1915 1856 2080 1644 2121 2438 2896 2478 1998 2003 1406 1757 1536 1852 982 700 1450 1343 914 320 558 482 179 372 105 255 150 907 1192 1305 775 938 1655 1305 910 598
1102 1341 1675 1843 2179 2316 2133 1705 1388 1627 1636 1649 2048 2575 2637 1969 2200 2881 2298 1022 1816 1215 622 886 421 379 279 246 522 243 590 184 50 531 1541 1709 1255 919 1020 1071 1740 1260 1140
1210 1274 1670 2144 2511 2727 2670 1646 1990 2029 1918 1537 2392 2575 2202 2293 2836 1942 2156 2141 1541 1075 1213 1223 909 751 1195 1158 363 412 401 903 338 462 1292 2232 1657 1739 1382 1337 1477 1581 1452
1230 1225 1843 1938 2215 2014 2381 2924 2390 1934 1779 1521 1754 2027 2511 1927 2298 2013 1857 1584 1657 1804 1231 1633 1036 933 864 589 604 376 297 424 455 805 443 1642 2415 2250 2140 1895 1983 2096 1865
1189 1358 1397 1738 2155 2150 2159 2536 2156 1789 1290 1186 1165 2382 2215 2302 2302 2505 1368 2017 1240 1963 2266 2391 2691 1212 725 505 473 510 208 276 251 419 428 1001 1579 2222 2387 2491 2369 2349 2505
1142 1998 1682 1330 1622 2158 2346 2342 1758 1490 1273 1522 914 1356 2464 1912 1857 2099 2101 1201 1699 2108 2091 1702 1700 1309 1456 946 1188 336 654 557 897 563 579 1576 1065 1201 2463 2552 2373 2203 2259
1931 2412 2426 2054 1574 2097 2369 1907 1962 2444 1831 1121 1064 801 2434 1836 1898 1838 1658 1870 2634 2310 2163 2250 1656 1582 1458 1185 1075 1197 1443 540 695 270 442 1128 1888 949 1419 2272 2253 2113 2119
1693 2111 2485 2342 2680 2929 2181 2093 1493 1229 1207 1489 1489 1200 2888 1522 1617 1960 1338 2590 2384 2582 2709 2200 2172 1624 1997 2566 1211 1001 1845 1276 1419 1204 947 1327 1594 2114 2186 2157 2371 1838 2167
1867 2908 2822 2944 3320 2348 1823 1541 1409 978 1647 1496 1262 2103 1909 2215 2040 2215 1495 1871 2655 1800 1929 2285 2717 2174 1901 2254 2682 1389 2082 1610 1427 916 672 1315 1325 1412 1969 2465 2414 1861 1873
2166 3007 2968 3183 3747 2754 1929 2055 1477 1652 974 1631 1847 1978 1885 1626 2295 2088 1962 1778 1665 1447 1964 1834 1932 2087 1903 2674 2140 2044 2173 843 1014 1325 1324 1130 1566 1501 1633 1981 2067 3171 2534
2570 3090 3308 3246 3862 3230 2704 2464 2316 2005 1830 999 1159 1625 2027 1779 2110 2079 2160 2690 2718 1915 1187 2460 1667 1569 1302 2290 1953 1838 1575 486 1149 869 1808 1148 1464 646 876 2113 2673 2591 2107
2143 2608 3539 3442 3512 3647 3940 2450 2760 1547 1230 894 1147 1131 1450 2049 1967 2063 2621 2301 2677 3004 2071 1655 2788 2360 1774 1077 2407 1381 1664 1334 1611 1327 886 1151 1129 1479 2214 1344 1290 2351 1953
2159 2563 3138 3617 3592 3386 3594 3011 2586 2314 1222 1093 1041 2412 2322 2841 2198 1685 2022 2000 2123 2249 1908 2612 2445 2197 2357 2415 2226 2041 1530 1255 2024 853 1375 620 990 1257 920 1589 855 1937 2241
2510 2579 2635 3857 3797 3902 3841 3946 3617 3119 2450 1226 1497 1300 1432 1299 1622 2196 1899 2189 2113 2114 2173 2112 1975 1859 2218 2376 2309 1824 1227 820 788 1250 659 668 499 1212 760 584 1326 1320 1644

GFSSE_con_sbcape_096.txt.gz
CAPE
968 1514 2685 2787 2650 2577 2426 2343 2457 2313 1793 1657 1658 1610 1467 1644 1468 1643 1694 1622 1358 1380 1139 717 619 707 966 1096 1259 1500 1388 1479 1495 1366 1800 1713 1741 1841 1706 1115 1278 817 455
1000 1523 2609 2849 2905 2787 2623 2598 2589 2618 1819 1793 1852 1789 1697 1884 1505 1527 1700 1530 1259 1217 1628 1339 881 977 1090 1171 1467 1453 1083 1396 1159 1425 1158 913 1198 522 1238 2065 1508 1253 798
1035 1439 1690 2819 2982 2755 2936 2890 2732 2534 1748 1899 1883 1936 1814 1598 1546 1391 1589 1509 1501 1203 1391 1512 1546 1570 1608 1441 1384 1012 1039 1310 1783 2011 1900 60 111 985 331 670 1422 1319 741
1072 1131 1284 2741 2961 3023 2947 2939 3020 2610 1847 1913 1942 1804 1822 1855 1805 1663 1589 1498 1545 1473 1218 1475 1522 1518 1590 1475 1431 1174 1366 1459 1221 1528 1167 169 142 1177 863 1414 664 940 1151
1085 829 1481 2948 3104 2628 2771 2977 3040 2991 2208 1984 1941 1820 1953 1704 1589 1603 1555 1660 1662 1517 1394 1442 1549 1358 1564 1018 1223 1216 737 771 602 947 1274 22 526 1308 1450 1292 1162 1012 1387
862 1017 2223 2919 2602 2656 2484 2917 2960 2968 2818 2620 2105 2221 2225 1939 2136 1533 1720 1510 1346 1138 1437 1215 1045 884 1004 1388 901 1263 1263 1396 1299 1023 444 511 715 1462 1272 687 974 957 562
875 1834 2031 2861 2799 2767 2906 2784 2853 2827 2725 2602 2111 2004 2109 2094 1748 1796 1682 1629 1063 669 1560 1213 691 1053 1464 1302 1539 1149 800 614 497 495 643 88 982 1504 727 440 159 409 144
1890 1524 1786 2631 2834 2683 2255 2648 2764 2569 2262 2362 2156 2101 2143 2085 1910 1676 1757 1695 1013 712 1300 1470 1323 1168 1416 1224 540 381 521 342 709 317 804 782 1814 1923 933 827 1240 1006 1011
1415 1441 1851 1891 2195 2107 2232 2251 2620 2514 2255 2550 2378 2197 1979 2030 1898 1754 1844 1705 1498 1571 1213 1397 1492 1490 1191 1018 808 989 1135 1254 1117 887 763 712 1969 1750 1427 995 587 1244 540
1671 1361 1562 1808 1997 1943 1951 2653 2372 2331 2409 2189 1976 2090 1927 1993 1923 1838 1911 1833 1491 1352 1332 1507 1203 1494 1596 976 927 991 1403 1275 773 798 145 264 1385 1107 958 793 1178 382 102
1621 1603 1607 1849 2002 2032 1919 2277 2637 1906 1734 1904 1569 1550 1995 1908 1704 1689 1863 1934 1607 891 1478 1634 1270 1788 1566 952 1043 1557 1233 606 412 414 137 1237 1277 1088 789 1277 1498 1039 399
1462 1493 1587 1821 1856 1944 1284 2037 2057 1825 1785 1775 1941 2081 2264 2167 1853 1477 1606 1761 1760 836 1519 1633 2041 1731 1098 614 711 1333 931 404 703 273 186 1840 1705 1752 1534 1541 1285 644 344
1862 1757 1964 2004 2149 1918 1910 1987 1585 1934 1868 2096 2127 2022 2620 1739 2179 1587 1793 1709 1544 923 1110 1617 1762 1344 795 653 348 451 266 222 218 420 660 1715 2010 2054 1583 1992 1798 992 603
1764 1918 2111 2243 2264 2380 2495 1996 1863 1601 1993 1676 2175 1738 2127 1685 1419 2071 1570 1734 2217 990 687 1195 933 859 694 514 138 298 610 443 110 838 895 1618 1715 1745 1709 1774 2095 1642 1072
1654 1955 1957 2376 2238 2193 2293 2146 1880 1668 1994 1680 2117 1971 1672 1685 1534 1526 1810 1959 1764 1266 834 887 1043 635 615 1322 1128 902 471 770 1014 915 873 1996 1684 1746 1980 1678 1990 2031 1645
1747 2257 2179 2466 2606 2420 2079 2403 1955 2094 2375 2354 1885 2027 2408 1882 1894 1086 1082 1692 1211 1796 997 544 1478 803 1732 891 645 847 921 802 974 1376 1119 1953 2345 2081 2116 2334 2257 2268 2077
1751 2034 2261 2422 2811 2364 2309 2138 2195 1959 1580 2234 1512 1819 2052 2425 1896 1675 1535 1541 1089 2054 2656 2118 2231 2219 1024 1388 1617 966 767 771 628 1163 1352 1565 1776 2578 2298 2382 2453 2328 2250
1865 2431 2310 1947 2275 2420 2220 2239 2155 2157 1791 1049 1486 1940 2257 1969 1947 2524 1706 1926 1115 2040 2099 2329 2453 2185 1658 1399 1132 1175 510 494 466 947 1202 1256 1412 1283 1853 2202 1994 2378 2399
2063 2342 2449 2118 2228 2295 2491 2534 2230 2514 2229 1824 1770 1788 2636 1973 2094 1782 1910 1704 2651 2113 2246 1978 1673 2235 1984 1737 1644 1834 1640 1162 1345 678 769 799 1545 1418 1409 2114 2226 2020 2427
2223 2550 2558 2544 2341 2601 2573 2628 1934 1887 2189 1249 2045 1744 1899 2121 2286 2367 1966 1901 1892 1832 1952 2497 1673 2111 1552 1369 1163 833 1136 1206 1319 1248 1182 754 1214 1831 1549 1918 1929 1794 2314
2362 2519 2672 2627 3025 2571 2386 1995 2086 1342 1522 1126 1572 2162 1805 1783 2081 2270 1620 1935 2000 1847 1783 2162 1773 2046 1442 1519 1207 1411 1447 2009 2060 1838 1594 781 1325 1549 1121 2546 1762 1634 1774
2566 2465 2847 2737 2903 2701 2297 1789 1710 1999 1498 1544 2198 2177 2025 1595 1956 1991 2056 2214 2410 2251 1948 2200 2281 1905 1689 1304 1231 746 822 1285 1397 1063 973 1265 1314 1112 926 1607 2308 1803 1699
2472 2782 2680 3167 2875 2685 2521 2178 1960 1992 2939 1737 1804 1772 1941 1995 2053 2049 2173 1696 2245 2028 1300 1762 1425 1907 1564 1273 1612 470 487 592 864 1573 1165 978 1031 1205 1042 877 1510 1996 2404
2433 3120 2965 3139 3269 2746 2620 2184 2253 1688 1448 1788 1972 1829 1904 2115 2088 1773 1694 1855 2261 2252 1880 1220 2167 1383 1143 1159 1540 986 726 957 618 668 1400 811 441 426 2340 2387 1979 2316 1771
2504 2948 3304 2952 3660 3013 2823 2435 2260 1830 1867 1618 1840 2471 1852 1936 2118 1796 1714 1469 1575 2065 1408 1340 1761 1953 1528 1344 1075 1003 1117 861 817 770 533 214 902 944 833 1694 1198 1822 2520
2621 2912 3130 3330 3333 3494 3189 3282 2628 2289 1969 1577 1381 2025 1685 2026 1999 2087 1904 1709 1597 1951 1569 1562 1508 1615 1569 1578 1006 904 827 1097 680 680 482 484 619 458 1446 351 960 1877 1965

GFSSE_con_sbcape_102.txt.gz
CAPE
763 1905 2898 2658 2042 2100 2103 1806 1636 1716 1647 2388 2842 3058 2791 2780 2733 2557 2379 2311 2049 1514 1294 960 983 832 593 1053 1220 1349 1241 1246 1211 947 1397 1290 1143 1110 645 549 592 616 815
909 1732 2882 2832 2473 2243 2499 2271 1793 2099 1931 1924 2278 2355 2593 2830 2354 1759 2100 1722 1339 1233 1071 884 1062 1152 1222 1485 1348 1373 1550 2155 1674 1343 1232 1022 1254 1034 320 73 499 371 413
1286 1735 2245 2830 2927 2641 2593 2502 2191 1978 1869 1772 2098 1942 2059 2421 2185 1631 1561 1581 1207 949 869 930 1160 1227 1562 1503 1251 1256 1475 1580 1636 1380 1048 254 678 1227 1297 621 1396 1380 491
1312 1732 2004 2833 2931 2838 2852 2669 2402 1994 1948 1927 2089 1743 1656 2008 1885 1786 1609 1418 1695 1427 1289 1355 1586 1673 1583 1310 1160 1141 1506 1386 1160 874 441 173 715 1391 1276 808 740 1227 1485
1314 1650 1953 3057 3052 2660 2797 2893 2669 2684 2207 2176 1968 2118 1787 1988 1808 1741 1934 1647 1351 1646 1667 1680 1755 1640 1533 1009 1514 1452 1409 1099 1382 528 12 168 494 722 1487 1355 910 554 587
1110 1510 2690 3168 2871 2645 2638 2711 2600 2485 2689 2680 2170 2193 2175 2000 2001 1827 1902 1734 1667 1301 1519 1528 1723 1448 1518 1493 1284 940 1008 863 868 724 126 862 837 1466 1024 907 1208 765 81
994 1536 2383 3077 3097 3040 3115 3062 2658 2626 2747 2714 2386 2283 2065 1925 2174 1959 1845 1789 1828 1670 1564 1633 1312 1348 850 919 926 1170 1192 781 106 91 705 770 734 1703 1695 1458 1004 1110 453
917 1705 2115 2753 2975 2759 2641 2685 2390 2234 2235 2200 2602 2267 2160 2173 2060 1817 1665 1199 1311 1758 1673 1049 994 848 1500 1120 1315 1003 583 479 548 4 608 948 1462 1434 1330 1224 396 410 227
1107 1651 1926 2108 2027 2274 2641 2638 2560 2263 2241 2280 2279 2691 2464 2004 2020 1941 1939 1480 739 1630 1323 732 1355 1379 1383 1353 677 457 573 934 749 100 447 660 1660 1574 466 578 838 202 1275
1067 1330 1656 1793 1489 1642 1872 2681 2662 2439 1966 2284 2255 2338 2244 2032 1868 1764 2169 2082 639 1630 1723 1771 1308 1569 1392 784 580 1035 1108 1239 604 340 313 709 1641 1379 1409 1274 1186 892 871
914 1161 1292 1183 1132 1263 1623 1806 2652 2111 2318 2123 2117 2218 2137 1474 1625 1834 1799 1669 927 1152 1634 1752 1565 1232 1170 1007 1132 1167 1155 691 357 228 288 1284 2266 1984 1533 1268 1592 874 326
911 1096 1168 982 1037 1190 1774 1600 1744 1674 1577 1331 1539 1544 1384 1211 1136 1410 1531 1859 1193 1358 1583 1727 1416 1625 1290 676 566 1107 777 816 695 175 0 1431 2459 2473 1561 1598 1139 481 304
1036 1129 1055 1067 960 1112 1361 1193 1130 1102 1212 1048 885 889 1112 998 1271 1387 1065 1458 1040 1250 1159 1680 1465 1156 823 572 297 162 414 493 310 26 0 1658 2168 2444 1174 1381 1630 1101 721
945 993 986 975 918 978 1123 1211 1082 1027 914 868 820 716 913 816 684 935 885 985 859 254 833 1014 1134 1056 659 471 323 154 58 94 22 9 58 1935 1870 1960 1602 1330 1519 1038 636
867 886 891 825 750 693 890 1078 940 937 965 901 925 959 886 648 491 703 803 890 609 98 235 799 744 759 607 447 268 135 7 0 136 82 302 1789 1914 2195 2253 1655 1285 1082 773
927 848 847 805 666 636 764 603 676 806 825 673 793 847 1039 691 329 632 659 851 609 201 22 462 389 430 319 155 100 134 22 27 591 163 63 1144 1841 2124 2434 2202 2194 1580 1214
989 932 875 892 678 594 892 530 401 554 658 620 665 675 811 611 394 472 555 630 798 398 30 44 272 233 213 118 86 42 14 0 176 218 236 510 1087 1878 1866 2222 1862 2397 2255
1232 1159 1046 1058 916 905 943 742 598 676 640 668 742 686 795 664 522 205 394 492 574 447 469 311 175 230 362 212 217 106 125 0 0 99 333 466 704 991 1662 2096 2044 2003 2158
1438 1392 1409 1234 1115 1061 884 909 780 779 793 706 804 863 743 777 770 410 316 431 455 488 672 634 535 310 291 190 235 240 82 0 0 0 0 438 507 798 775 1206 1738 1717 1883
1492 1678 1635 1547 1184 1129 986 716 719 817 722 662 641 888 704 855 844 728 484 618 499 476 533 594 540 552 456 366 553 563 314 280 124 0 0 0 107 619 548 461 725 952 2182
1539 1730 1836 1758 1417 1207 1115 969 699 862 895 463 589 631 811 622 612 656 630 657 735 682 577 584 587 542 549 236 242 167 95 141 231 453 211 90 113 26 357 512 502 704 802
1592 1657 1881 1930 1722 1290 1128 1162 838 707 668 694 504 574 719 736 542 465 364 368 541 658 480 600 506 609 497 343 339 23 87 14 47 216 441 429 349 179 196 456 502 749 653
1738 1709 1733 1934 1846 1466 1185 1049 807 492 456 620 433 583 762 858 779 639 479 380 446 453 566 518 659 660 663 434 355 73 82 58 35 17 59 224 336 161 198 130 512 871 678
1715 1751 1648 1677 1817 1594 1334 1035 1202 913 762 835 548 443 702 831 843 890 783 579 554 371 335 479 689 636 418 426 254 282 47 64 149 73 36 123 179 214 128 423 180 133 552
1734 1775 1703 1581 1680 1585 1480 1213 1257 1096 753 382 519 387 693 564 632 693 730 578 591 737 598 521 605 624 564 249 172 246 354 132 103 159 161 158 94 165 96 131 1 0 2
1417 1768 1907 1680 1654 1661 1538 1331 1166 1083 814 632 629 443 589 660 515 546 618 623 421 521 623 586 481 517 492 423 222 159 221 225 216 112 132 109 95 68 88 96 146 162 115

GFSSE_con_sbcape_105.txt.gz
CAPE
449 1368 2520 2417 2384 2196 1888 1938 2189 2728 2752 2615 2679 2769 2649 2665 2551 2449 2315 2149 1926 1582 918 917 1130 1282 1367 1571 1487 782 922 756 1072 1460 1586 1575 1556 895 898 1375 1152 778 1057
576 1724 2729 2714 2680 2052 1818 2038 1956 2463 2581 2962 2860 2691 2905 2824 2645 2548 2406 2274 1482 1134 1100 916 868 881 1134 1404 1520 906 830 904 1468 1096 951 854 602 448 367 394 528 362 431
1181 1869 2215 2720 2746 2121 1953 2079 2204 2396 2265 2083 2846 2901 2605 2597 2407 1918 1667 1537 1364 1279 1121 999 1091 979 1165 1403 1392 1061 988 1416 1203 1009 1111 481 839 216 594 912 476 288 96
1266 1780 1910 2733 2873 2819 2553 2514 2478 2196 2047 2139 2378 2503 2844 2318 2178 2099 1512 1347 1268 1210 1074 1112 1154 1195 1276 1228 1211 1323 1069 1434 1141 1084 256 471 751 1101 632 1194 1256 526 1133
1291 1500 1829 3020 3024 2536 2514 2863 2867 2722 2529 2349 1819 2011 2117 2432 2175 1745 1849 1718 1265 1164 1337 1572 1775 1502 1219 1086 1117 1445 1159 1138 1030 514 0 133 719 1175 804 638 1054 1408 1426
1320 1415 2437 3132 2752 2601 2499 2574 2747 2707 2755 2818 2217 1676 2199 2102 2176 2166 1757 1690 1973 1884 1725 1801 1738 1623 963 1474 1268 1320 1145 1104 918 129 97 616 294 1553 1377 867 399 430 919
1291 1415 2288 3087 2968 2907 2673 2406 2534 2727 2738 2565 2550 2285 2205 2357 2353 2105 1879 1844 1538 1665 1766 1690 1620 1570 1293 1347 997 1047 1344 859 324 158 215 827 564 1463 924 1033 1105 78 177
1195 1754 2033 2671 3034 2821 2310 2291 2230 2369 2240 2266 2548 2265 2384 2284 2558 2103 2233 2113 1911 1604 1790 1886 1646 999 1001 1044 885 1164 841 735 169 235 664 527 988 2078 1503 1110 1040 660 438
1303 1845 1932 2014 2025 2288 2373 2334 2226 2190 2326 2499 2668 2698 2453 2434 2077 1881 2175 1683 1980 1992 1902 1297 1004 1270 1017 1258 1164 670 609 1357 337 138 660 684 1689 1937 1642 1221 531 532 264
1411 1678 1783 1833 1715 1800 2038 2830 2610 2751 2288 2366 2475 2401 2400 2214 2134 2051 2347 1727 1629 1860 1109 979 1729 1540 1558 1287 563 488 970 1433 407 14 438 607 1663 1074 707 588 336 445 1448
1131 1440 1672 1688 1271 1454 1687 2121 2872 2346 2393 2176 2001 2175 2462 1517 1614 1762 1833 1307 1376 1934 1845 1836 1389 1798 1532 766 864 1156 1186 513 205 185 225 1048 1560 1006 772 992 1185 694 926
854 1151 1439 1284 1174 1175 1620 1545 1658 1365 1523 1718 1783 1710 1439 1322 1349 1558 1844 1546 796 1819 1756 1990 1789 1338 1063 562 629 1039 626 517 420 184 187 1583 1742 1262 1665 1791 1455 931 600
763 980 1069 879 1042 1218 1458 1103 1479 1203 1225 1107 1334 1265 1210 1028 1538 1587 1275 1531 728 958 1364 1862 1579 1229 942 555 295 195 190 430 462 211 47 1728 2081 2059 1652 1305 1383 926 499
757 813 904 808 909 1112 1284 1263 1264 1222 1095 857 838 928 1045 866 1002 1075 888 1108 763 714 923 1289 1025 921 684 529 376 225 155 105 113 22 0 1520 2146 2475 2281 1599 1349 1154 760
848 817 855 812 791 858 1030 1155 1049 1075 981 913 633 623 829 714 655 769 704 847 675 143 561 821 849 855 667 438 344 242 114 2 0 4 0 1482 1937 2013 2350 1273 1276 1545 1046
951 828 871 823 682 686 845 1019 906 833 795 708 708 651 748 649 348 674 676 785 574 181 58 543 523 583 498 346 261 194 166 44 137 286 98 1132 1977 1590 1817 1996 2004 1500 1160
995 800 851 796 654 588 718 765 667 672 666 631 605 668 807 577 264 497 604 710 658 238 34 49 313 213 223 87 66 44 34 0 37 265 3 628 975 1893 1891 2348 2701 2270 2080
1052 796 821 839 670 598 639 537 450 486 547 547 473 545 753 667 274 347 397 526 594 376 119 3 45 218 184 109 77 50 27 0 0 240 70 108 524 565 1377 2181 2111 1854 2291
1108 915 837 774 696 612 766 611 420 422 434 506 407 511 629 694 458 186 282 317 394 401 396 190 102 75 94 107 135 133 50 0 0 0 71 200 277 570 511 958 1981 2005 1956
1157 1039 920 814 742 689 818 858 634 603 496 428 491 611 499 654 600 281 204 226 306 335 404 402 395 256 177 166 298 414 238 158 40 0 0 0 198 398 453 394 495 1006 2191
1319 1226 1142 1000 960 843 881 953 866 737 751 553 528 648 548 677 621 487 312 212 249 315 335 351 405 340 252 64 127 90 51 66 123 161 128 0 0 15 380 339 208 250 381
1471 1446 1395 1321 1214 1067 970 900 929 893 801 754 563 473 657 583 505 552 477 344 346 456 295 265 344 315 334 162 143 9 128 32 3 39 83 271 175 31 18 155 294 308 414
1521 1647 1617 1576 1461 1294 1171 990 720 576 601 631 464 564 485 639 386 488 359 332 306 433 320 285 261 352 258 177 103 98 55 122 2 12 25 100 306 267 207 156 188 270 386
1356 1476 1671 1671 1593 1377 1278 1177 968 786 792 885 709 631 586 628 557 423 326 215 189 298 315 301 280 261 238 229 67 60 0 0 38 56 19 47 84 107 86 97 208 239 572
1620 1506 1589 1747 1741 1476 1175 1096 1096 855 728 733 488 533 574 648 653 640 456 264 176 175 218 247 363 341 259 155 157 138 121 44 11 77 145 142 62 89 86 100 97 20 38
1165 1561 1489 1553 1462 1512 1247 1031 952 946 762 495 567 469 552 575 584 602 651 454 334 339 275 194 231 318 306 279 62 13 84 112 176 67 94 99 105 64 26 53 42 25 12

GFSSE_con_sbcape_108.txt.gz
CAPE
240 1327 2165 2380 2270 1808 2102 2679 2517 2857 2811 2607 2554 2324 2446 2311 2165 1886 1970 2195 1798 1537 1504 1415 1381 1396 1649 1409 1131 1157 1063 1507 1587 1556 1523 1530 933 1276 1338 1392 1271 954 544
505 1527 2444 2681 2523 2105 2291 2833 2895 2703 3003 2911 2653 2789 2719 2640 2529 2151 2325 2245 1599 1245 1367 1429 1307 1389 1583 1274 732 1055 1138 1406 1617 1430 1204 788 586 651 1158 897 816 613 599
786 1469 2185 2687 2602 2136 2294 2797 2826 2834 2427 2436 2944 2818 2650 2580 2467 2490 2573 1966 1257 1330 1226 1087 1135 1250 1369 1276 906 1014 1332 1905 1969 1133 1043 585 100 56 124 349 374 167 386
1036 1608 1796 2635 2530 2338 2601 2733 2836 2664 2501 2704 2702 2959 2872 2707 2484 2294 1791 1704 1538 1413 1135 1127 987 1260 1368 1233 1051 1093 1500 1276 1256 1232 632 842 251 569 1086 549 209 538 1223
1270 1555 1798 2899 2737 2012 2235 2770 2836 2677 2825 2887 2805 2632 2470 2479 2505 2076 1462 1465 1502 1259 1177 1254 1216 1260 1291 1256 1268 1189 1499 1152 1110 443 268 622 1061 610 1198 1217 776 1187 1258
1301 1393 2401 3115 2848 2450 2180 2593 2855 2897 2822 2974 2998 2299 2132 2330 2776 2519 1739 1436 1409 1310 1415 1622 1342 1330 1058 1121 1185 905 1181 1019 670 133 231 1141 905 1118 529 931 1342 1209 966
1171 1312 2258 3069 3077 2800 2773 2772 2955 2928 2972 2608 2309 2747 2438 2354 2544 2607 2089 2092 2315 1926 2209 1719 1357 1076 1327 1163 1086 1193 1698 1067 403 202 270 881 590 1966 1221 536 258 473 1019
1091 1367 2025 2717 3006 2930 2414 2451 2553 2422 2395 2605 2573 2533 2468 2414 2344 2745 2643 1898 1944 2170 2255 2100 1557 1148 1244 1026 886 968 1210 973 734 227 488 773 683 1552 975 1235 500 0 337
994 1706 1823 1900 2064 2299 2560 2519 2719 2710 2594 2863 3057 3066 2747 2338 2187 2334 2788 2528 1845 1904 1991 1867 1438 1193 1307 977 1076 1071 822 805 144 519 674 710 1203 1594 1503 953 1042 438 456
1210 1545 1665 1833 1675 1875 1958 2882 2858 2893 2388 2527 2623 2516 2511 2327 2096 2029 2582 2245 2028 1965 1972 1516 1211 1323 1610 1100 1060 599 995 1470 302 538 832 734 1282 1657 1646 1213 559 576 320
1440 1493 1587 1715 1359 1474 1670 2124 2746 2397 2498 2421 2518 2485 2492 1799 1768 1850 1569 1581 1946 2056 1174 1380 1375 1662 1547 1121 563 619 1138 497 362 253 592 1010 1298 992 806 643 386 377 1424
971 1107 1553 1462 1299 1351 1751 1814 1813 1682 1898 1873 1861 1974 1588 1363 1387 1706 1701 948 1645 1971 1617 1589 1820 1765 1387 453 777 1310 1023 594 437 283 360 1319 1283 1173 848 1351 1445 629 842
891 882 905 1255 1144 1302 1474 1219 1453 1147 1335 1428 1447 1353 1270 1118 1679 1867 1524 1144 578 1792 1561 1636 1583 1110 685 627 589 505 470 547 667 497 340 1404 1629 1121 1409 2039 1545 1264 768
826 882 829 966 1146 1193 1248 1172 1244 1166 1070 1035 1141 1124 1084 900 1227 1167 1151 1244 538 751 1107 1421 1139 984 833 642 431 283 221 256 370 349 190 983 1994 1598 1538 2029 1288 1351 1011
720 852 824 844 963 1102 1165 1201 1136 1179 1146 852 806 892 888 767 851 812 676 892 746 381 841 1155 925 909 748 588 529 442 317 211 52 66 62 648 2215 2013 2311 2068 1592 1166 1305
667 770 870 806 836 890 1034 1083 1037 1107 1058 827 654 739 792 658 625 787 567 749 658 210 206 707 775 776 681 551 454 406 408 313 169 394 94 718 2269 2027 2309 2581 1921 1413 1538
684 721 849 774 744 743 799 876 911 1023 938 975 758 521 676 585 429 757 716 747 717 329 88 156 464 449 491 314 320 230 193 212 111 515 259 968 1920 2027 1691 1908 2243 2389 2195
820 718 844 866 700 634 669 769 723 715 852 872 827 682 758 674 399 480 694 784 755 450 155 33 138 377 332 263 229 180 228 126 140 191 387 389 854 828 1575 1868 2039 2296 2168
1042 845 803 809 704 593 571 557 525 468 586 600 586 704 745 827 531 484 575 621 661 590 343 88 26 143 276 303 303 298 276 251 172 32 303 306 384 757 622 914 2023 1915 2104
1066 870 809 759 698 605 518 465 332 294 409 438 492 619 717 893 773 434 482 405 547 646 585 401 257 140 161 148 214 450 392 324 197 10 57 59 412 545 710 804 794 1191 1709
1072 941 853 762 693 616 595 588 467 421 390 397 512 622 632 844 809 595 427 347 451 546 640 671 686 605 558 302 416 393 349 398 345 378 277 113 89 208 556 851 759 664 644
1120 1061 938 788 650 549 530 607 537 496 544 537 531 633 679 737 777 754 582 360 400 494 450 496 620 545 355 102 294 121 478 395 86 157 291 440 436 348 164 416 813 859 777
1266 1121 1054 902 772 669 536 555 504 554 419 545 520 566 728 761 812 802 670 542 429 493 475 453 513 554 660 143 160 331 76 484 49 28 109 153 504 585 532 463 384 694 840
1376 1254 1169 1110 1021 960 823 784 745 740 764 739 685 649 631 798 786 798 673 564 472 489 527 527 547 572 249 346 219 150 27 76 323 291 128 231 359 461 570 539 770 640 829
1453 1454 1368 1312 1337 1256 1109 1097 894 771 660 597 700 566 531 604 760 725 714 486 438 448 549 485 440 330 359 420 284 288 381 176 79 209 446 637 386 382 538 296 586 707 575
1327 1508 1638 1566 1610 1536 1391 1228 1164 1051 762 436 461 576 565 575 691 732 731 586 408 424 405 388 453 449 377 495 168 113 466 311 497 299 247 290 313 319 337 429 530 610 391

GFSSE_con_sbcape_111.txt.gz
CAPE
299 1142 2094 2218 2208 2390 2759 2831 2832 2643 2597 2367 2369 2337 2425 2516 2323 2311 2395 2310 2153 2213 2024 1306 1049 1052 1413 1434 1582 1605 1555 1647 1414 1447 1453 809 762 1428 1548 1407 646 183 929
583 1337 2582 2699 2665 2692 2896 3002 2787 2752 2764 2472 2370 2357 2322 2529 2221 2205 2544 2375 1946 2206 1668 1370 1410 1516 1305 1230 1368 1470 1709 1838 2032 1679 1267 797 1450 1477 1166 1216 560 1195 1045
977 1373 1967 2602 2637 2576 2933 2876 2993 2879 2911 2642 2744 2498 2424 2345 2131 2180 1912 2082 1607 1632 1618 1373 1410 1652 1311 904 1199 1422 1591 1905 1878 830 341 4 154 721 630 653 522 325 524
990 1533 1396 2486 2511 2784 3129 3024 2972 3091 2992 2875 2884 2857 2784 2507 2378 2135 1512 1431 1613 1464 1349 1289 1319 1424 1354 1163 1309 1640 1480 1566 1615 1334 465 0 221 616 440 317 193 1269 1335
971 1362 1494 2724 2669 2282 2976 3022 3120 3022 2917 2947 2946 2613 2543 2697 2597 2005 1660 1595 1626 1381 1283 1176 1248 1388 1357 1228 1287 1628 1402 1401 1308 784 856 694 187 1396 1069 312 1163 1347 675
671 1054 2283 2757 2455 2247 2562 2943 3031 3113 3219 3055 3013 2779 2700 2456 2403 2448 1974 1738 1551 1333 1334 1196 1019 1258 1235 1346 1182 1586 1221 1119 755 603 830 1134 661 971 1480 1280 1344 1406 1010
770 923 1987 2776 2633 2596 2718 2969 2938 3175 3237 3244 3144 2972 2670 2714 2653 2641 2394 1695 1653 1425 1825 1594 1407 1169 947 1245 989 1143 1496 714 139 201 913 691 1077 1158 612 1179 1220 1007 1134
781 828 1570 2747 2810 2757 2643 2543 2908 2668 2491 2802 3034 2775 2344 2287 2303 2429 2672 2090 1712 1872 1965 1605 1201 1267 1157 1236 1364 1276 1642 1156 813 466 363 398 904 1491 1322 505 179 472 1055
883 992 1363 2049 2218 2374 2748 2813 2831 2870 2695 2770 2774 3237 2806 2556 2220 2082 2287 2365 2104 2011 1920 1794 1486 1440 1292 1117 1057 1025 974 849 738 688 386 531 1127 1101 1038 1526 533 74 315
1074 1400 1473 1838 1924 1945 2074 3085 2992 3049 2790 2589 2574 2449 2615 2353 2392 2121 2359 2291 2031 1829 1739 1875 1409 1504 1470 1468 1204 917 1053 1156 509 828 666 521 1200 1440 1788 1063 767 548 331
1181 1591 1799 1779 2149 2250 2077 2186 2865 2502 2460 2529 2654 2697 2593 2141 2002 1861 2113 2099 1993 1918 1832 1559 1411 1686 1434 1183 1038 599 1137 969 643 701 745 1017 1075 1332 1434 1187 656 349 285
1138 1460 1762 1798 1715 2197 1836 2308 2197 2308 2302 2314 2326 2536 2722 2385 1996 1989 1457 2060 2075 1742 1400 1908 2143 1528 1378 610 515 593 951 740 830 868 781 1322 1300 1081 927 872 619 332 839
1084 1361 1290 1968 1974 2100 1919 2121 2180 2058 2481 2429 2614 3285 2876 2410 2919 2720 2180 652 1372 1753 662 1468 1752 932 666 476 539 627 742 621 603 924 801 1249 1526 1206 1032 1280 1064 1245 751
1163 1186 1277 1409 2034 2143 2284 1988 1822 1655 2228 2298 2406 2677 2443 2185 1842 2134 2066 1447 1365 2239 1980 1333 1239 1283 744 553 406 654 502 324 400 651 677 997 1913 1563 1149 1757 1910 1614 1229
1283 1166 1200 1562 2076 2276 2078 1718 1864 1633 2006 2042 2116 2375 2355 1953 1991 2018 1787 1985 813 1562 1730 1915 1678 1324 876 514 510 702 383 598 664 761 873 1066 1909 2147 1806 1502 1898 1479 1277
1358 1229 1242 1051 1618 2000 2018 2074 1944 1635 1762 2056 1849 2002 2336 1911 1933 2040 1933 1665 1810 878 1257 1811 1658 1232 985 660 705 806 831 1074 998 1045 1091 952 1593 2458 2226 2319 2576 2088 1404
1309 1277 1283 1097 1105 1106 1633 1756 1828 1472 1407 1364 1748 2143 2162 2121 2071 1839 1679 1305 1663 1644 1982 1765 2047 1658 950 818 725 643 870 943 953 1060 1204 1126 1482 2413 2375 2466 2703 2566 2231
1332 1318 1352 1056 1055 1084 1117 1544 1241 1384 1440 1500 1590 1711 2169 2142 2003 1925 1425 1158 1287 1860 1677 980 1130 1184 981 676 632 555 658 788 934 1054 1088 1203 1274 1356 1870 2146 2205 2153 2224
1401 1443 1465 1395 1310 1321 1391 1334 1179 1304 1344 1292 1360 1327 1964 2011 1750 1629 1454 1638 1778 1556 1411 1210 900 655 1044 1047 700 652 706 904 1079 777 948 1197 1272 990 908 1071 1804 1908 1969
1583 1427 1491 1556 1669 1620 1585 1528 1077 1044 1318 1367 1462 1591 1532 1626 1674 1604 1617 1843 2028 1957 1807 1581 1162 725 257 711 528 318 704 1028 1215 1229 1180 921 964 1150 1058 1418 1453 1303 1959
1820 1649 1526 1695 1919 1690 1342 1227 1104 834 1051 1277 1402 1618 1875 1556 1374 1537 1335 1737 1740 1757 1845 1905 1642 1506 523 769 938 861 1153 1463 1322 1187 1272 996 823 872 1017 1292 1522 1152 991
1881 2003 2035 1830 1824 1710 1385 1357 996 1064 655 769 933 1105 1276 1320 1423 1428 1413 1488 1626 1522 1867 1943 1959 1702 1440 1486 939 1099 737 756 1083 1055 1103 1199 1149 1074 981 1055 1252 1471 1452
1892 1925 1949 2033 2108 1945 1760 1529 1172 997 863 762 766 957 1091 1282 1523 1769 1828 1734 1723 1656 1437 1726 1816 1848 2313 1735 1414 2082 1226 733 820 825 1212 1139 1155 1107 1108 1134 1465 1632 1907
1896 1875 1891 1877 1953 1708 1977 1697 1666 1195 937 838 793 750 995 1280 1432 1637 1845 1797 1782 1686 1916 1598 1584 1471 2101 1610 1259 1043 1210 958 1171 532 730 978 1271 1402 1399 1307 1166 1376 1727
1654 1902 1868 1830 1925 1919 1900 1842 1733 1654 1307 1032 971 1668 1889 1663 1613 1647 1776 1775 1771 1770 1638 1648 1563 1542 1320 1270 1965 2006 1942 1695 1446 1210 853 612 693 919 1156 1465 1123 1180 1350
1696 1828 1930 2025 1976 2044 1914 1989 2086 1958 1675 1370 1624 1562 1495 1537 1590 1900 1923 2006 1866 1791 1730 1739 1671 1704 1911 1559 1819 2302 1977 1017 1344 1410 1188 965 717 772 743 607 522 674 998

GFSSE_con_sbcape_114.txt.gz
CAPE
847 894 2385 2418 2123 2983 2999 2737 2603 2409 1851 2069 2010 2198 1984 2206 2095 2471 2143 1982 1860 1415 1220 967 1099 1559 1659 1693 1785 1682 1468 1637 1854 1063 1035 966 1067 1159 965 558 1830 1333 1318
804 1158 2232 2825 2793 3145 3168 3088 2753 2392 2083 2008 2113 2240 1991 2476 2535 2378 2328 2279 2206 1860 1318 1340 1517 1484 1623 1645 1685 1714 1561 2035 1752 1026 1511 1710 1563 1465 1439 812 1890 763 1243
829 1156 1517 2937 3081 3170 3063 3073 2958 2534 1989 2051 2384 2025 2088 2282 2273 2557 2495 2285 2158 1834 1540 1575 1590 1332 1213 1459 1691 1656 1840 1852 1653 946 1238 286 932 1021 1162 588 1129 1156 793
821 1274 1029 2783 2986 3113 3040 2998 3025 2747 2100 2290 2419 2290 2519 2311 2187 2330 1906 1923 1931 1783 1588 1502 1676 1501 1082 1371 1534 1652 1359 1130 842 508 10 0 0 455 436 238 1085 1269 1479
930 1158 1583 3005 3095 3107 3123 3052 3172 3018 2921 2897 2555 2351 2271 2195 2277 1661 1752 1810 1754 1595 1515 1530 1573 1493 1409 1418 1726 1595 1774 1748 1364 1065 112 591 611 630 222 1193 1589 1028 1116
1058 979 2151 2939 3085 2962 3076 3086 3189 3133 3132 3173 2950 2589 2247 2351 2235 2326 1707 1765 1665 1522 1374 1364 1289 1611 1461 1373 1600 1577 1386 1249 1039 484 580 292 835 1402 658 1209 1547 1134 447
1125 1101 1665 2820 2998 2976 3168 3291 3282 3228 3177 3213 2984 2538 2727 2597 2729 2730 2269 1914 1598 1360 1415 1256 1426 1417 1398 1391 1535 1329 1094 761 265 354 425 537 469 1564 1624 1583 1479 956 699
823 1251 1728 2472 2815 2834 2838 2778 3016 2989 2826 2810 2836 2794 2992 2888 2812 2558 2201 1817 1774 1707 1741 1627 1540 1131 1316 1154 1161 1198 924 904 405 129 236 610 1191 1040 554 739 939 1260 1437
687 1190 1497 1549 1746 2103 2755 2767 2990 3022 2851 3033 2960 3058 2898 2614 2054 1832 2079 2060 1998 1757 1845 1781 1366 1249 1312 1495 1456 1298 1224 1181 1044 375 125 99 1074 1379 1326 692 127 383 764
800 1067 1517 1442 1426 1330 1818 3032 3003 3084 2613 2465 2462 2456 2459 2325 2192 2176 2034 1960 2156 2105 1669 1802 1431 1641 1366 1348 1157 1167 1199 1351 555 352 229 737 1227 1357 1377 1680 989 356 503
1061 1216 1475 1727 1648 1549 1696 2144 2867 2416 2148 2167 2408 2554 2432 1768 2219 1948 1887 1884 1861 1659 1834 1735 1612 1711 1405 1366 1272 828 1261 798 290 306 273 942 1159 1283 2108 1333 917 729 303
1314 1451 1381 1775 1872 1863 1665 2530 2153 2064 2310 2421 2457 2387 2776 1969 1470 1778 1728 1860 1887 1764 1800 1591 1876 1553 1381 944 875 655 973 688 775 672 1059 1273 969 1098 1279 1173 782 401 387
1328 1422 1547 1608 1943 1912 1642 2283 2196 2215 2441 2566 2304 2904 2251 2489 2591 2054 1802 1553 2080 1791 1580 1376 1416 918 399 392 244 467 639 866 739 871 1217 1680 1379 1290 1025 1013 970 921 458
1377 1447 1608 1784 1977 2109 1763 2084 1758 1422 1712 2187 2179 2728 3000 2596 2452 2085 1667 607 686 2081 1722 390 424 667 332 638 388 711 860 659 632 751 1361 1659 1912 1545 1312 1212 1277 1339 1395
1553 1626 1809 2048 2593 2663 2312 1893 1724 1285 1365 1958 2347 2495 2358 1830 2193 1912 2262 1551 315 1813 2108 1695 590 1201 615 677 644 807 929 570 763 1077 1043 1989 2015 2161 1675 1414 1499 2011 1712
1758 1779 1789 1953 2634 2455 2490 2257 1673 1461 1210 1443 1668 2208 2256 1864 2233 2158 2337 1593 1101 460 1759 1843 1486 1468 735 253 454 551 1056 791 889 1211 1221 1723 2163 2398 2214 1868 2187 2139 1776
2094 1946 1811 1831 1889 2312 2389 2065 1809 1337 1207 1166 1194 1531 1857 1894 1933 1801 1740 1065 1627 619 571 1624 1735 910 359 198 203 342 957 974 914 1207 1429 1561 1599 2128 2546 2367 2569 2851 2675
2202 2219 2020 1643 1747 2152 2210 1878 1499 1366 1219 1037 1012 1307 2390 1982 1719 1739 1387 959 810 1646 579 1201 1239 843 330 218 241 441 702 736 901 1278 1366 1371 1313 1403 2240 2696 2421 2421 2641
2256 2385 2191 1916 1677 1999 2045 1755 1596 1545 1465 1033 922 996 1887 1745 1654 1545 970 875 1135 853 929 368 420 526 351 356 278 524 571 511 726 835 999 1272 1456 1366 1130 2219 2169 2171 2077
2252 2311 2253 2036 1851 2154 1835 1644 1439 1213 1383 1176 1119 1139 1284 1686 1692 1474 1165 1230 1403 716 658 531 512 343 288 397 468 370 386 405 494 876 1161 1226 1116 1152 1242 1214 1631 1651 1864
2296 2352 2328 2147 2130 2054 2021 1775 1401 1122 1085 1124 1275 1415 1494 1402 1408 1712 1113 2256 2324 1376 1060 1208 1038 885 389 204 438 420 440 559 718 845 1123 1084 951 983 1171 1189 1362 1154 1057
2311 2445 2394 2327 2369 2344 2007 2227 1639 1542 1055 975 1343 1619 1815 1923 1554 1289 1261 1219 1924 2102 2204 2046 1618 746 457 141 304 166 145 204 261 407 686 617 581 712 850 876 1192 1484 1584
1857 2780 2771 2820 2749 2694 2574 1932 1677 1555 1351 1043 1064 1204 1550 1632 1706 1581 1300 1458 1911 2030 2871 2296 2202 1657 659 550 824 93 169 138 194 672 904 1061 979 964 1231 1269 1375 1559 1996
1433 2318 2886 3069 3079 2575 3073 2416 2867 1769 1564 1251 1257 1008 1155 1412 1429 1541 1799 2148 3022 2761 2901 2009 1860 2222 2944 2205 2304 1608 1396 1111 844 593 1282 1125 1456 1766 1677 1509 1250 1434 1777
1830 2162 2337 2782 2831 2954 2929 2944 2533 2500 1779 1605 1357 2093 1923 2067 1428 1339 1822 2036 2266 2781 2599 2509 2800 2526 2690 2676 2492 2646 1975 1244 2357 1503 825 892 1168 877 1082 1418 1374 1149 1182
2106 2058 1986 2715 2841 2921 2940 2927 3295 3480 2891 2089 2047 1613 1271 1147 1371 1855 1552 2250 2646 2544 2954 2911 2630 2203 2148 2007 2920 2601 932 1694 2060 1552 1951 1432 971 768 747 920 836 718 653

GFSSE_con_sbcape_117.txt.gz
CAPE
286 431 2016 2048 1958 2482 2269 2352 1972 1877 1922 2133 2216 2173 2010 1890 1893 2331 2067 1981 1698 1856 1347 1525 1809 1877 1930 1951 1979 1708 1458 1715 1626 1656 891 720 822 900 1373 1423 2244 940 1135
806 848 2557 2817 3039 3143 2888 2661 2337 2007 1891 1961 2326 2249 2123 2284 1954 2061 1981 1814 1696 1599 1119 1378 1680 1858 1980 1766 1708 1524 1397 1472 925 759 1670 1933 1707 1610 1481 1818 2077 1361 1352
908 1131 1618 3025 3402 3411 3261 2967 2429 2381 1908 1981 2158 2386 1936 2233 2341 2263 2427 2256 2136 1703 1592 1548 1426 1555 1662 1782 1757 1718 1876 1779 1563 2064 2466 370 1174 1227 1468 1478 1420 1049 1101
977 1026 1427 3169 3348 3460 3331 3093 2793 2442 2000 2109 1993 2317 2390 2418 2547 2149 2128 2006 2404 1657 1655 1710 1389 1175 1514 1652 1801 1675 1518 1081 816 889 1088 3 2 650 363 685 675 490 684
943 1097 2228 3393 3399 3356 3230 3120 2973 2749 2515 2338 2190 2211 2310 2363 2611 2312 2129 1795 1876 1838 1568 1604 1558 1374 1467 1784 1663 1520 1470 1311 1083 1102 257 49 0 194 1000 1686 1558 1629 1780
904 1087 2651 3298 3367 3213 3357 3284 3049 2946 2918 2766 2422 2484 1984 2368 2541 1982 2046 1923 1842 1640 1547 1740 1538 1428 1426 1668 1723 1530 1619 1217 1421 584 279 1104 109 527 1345 1555 994 431 1372
1122 1567 1918 3147 3218 3332 3301 3396 3196 3145 3196 2967 2718 2158 2400 2215 2201 1900 1727 1924 1750 1555 1368 1244 1692 1565 1474 1320 1730 1289 1122 1098 1219 346 319 707 1528 1547 1535 1689 1440 400 402
1173 1275 1390 2867 3119 3130 3073 2987 2855 2689 2543 2613 2627 2366 2377 2723 2358 1975 1968 1857 1592 1455 1441 1397 1568 1247 1526 1276 1455 1217 718 769 764 189 197 699 1452 1595 1645 1429 1037 1198 1169
1203 1044 1119 1570 2367 2331 2822 2942 2854 2707 2533 2942 2796 2863 2737 2461 2207 2025 2110 1708 1718 1637 1708 1548 1430 1165 1358 1124 1123 1255 1378 1580 1533 79 198 1008 1707 971 586 333 566 1125 855
1230 1374 1180 1122 1548 1594 2012 2825 3036 3017 2369 2328 2278 2255 2190 1987 1929 1820 2075 2197 1755 1819 1600 1554 1559 1317 1461 1611 1260 1201 1317 1664 994 88 403 449 1765 1175 1294 720 214 238 384
1130 1576 1394 1188 1129 1237 1264 1901 2734 2433 2438 2323 2240 2303 2394 1873 1853 2054 1782 1922 1662 1519 1555 1588 1713 1568 1438 1348 1216 1263 1174 1138 414 50 659 1507 1620 1606 1944 1416 842 512 366
1083 1514 1545 1492 1175 1095 931 2569 1687 1549 1686 2131 2286 2243 1907 1942 1771 1820 1551 1724 1311 1293 1545 1707 1743 1710 1454 852 931 1081 741 1072 236 174 578 1360 1215 1354 2068 1516 1032 514 306
1175 1293 1589 1634 2215 1171 1429 1859 2083 1796 2269 2715 2249 2753 1954 2668 2377 2505 2373 1415 2205 1584 954 1344 1482 597 230 713 263 56 440 337 501 755 1111 1483 1516 987 972 1148 998 643 323
1388 1350 1434 1758 3115 1939 2115 2094 1782 1491 1785 2151 1897 2844 3453 2389 2103 2504 1781 1927 2432 1445 1328 1424 443 212 133 522 188 184 520 432 445 1323 1658 2054 1996 1673 1233 1080 1134 1121 1220
1589 1508 1606 2128 3627 3480 3666 2197 2040 2019 1422 2357 2881 2863 2834 2373 1943 1956 2084 1703 913 1904 1683 2165 1365 992 1285 313 618 779 569 326 449 337 1803 2633 2288 2221 1723 1505 1341 1447 1621
1722 1703 1638 1929 3212 2954 2944 3593 3019 1925 1444 1470 2154 2211 2645 1934 2745 1726 2237 1426 803 2119 1309 1981 2107 1329 1706 201 824 446 599 504 367 1197 1517 2114 2472 2316 2156 1896 1772 1843 1943
1918 1910 1956 1901 2249 3267 3281 2821 2476 1435 1070 774 1933 3038 2932 2267 3100 2389 1903 1740 1302 1220 1879 1798 2235 1595 1705 372 490 267 624 748 552 1680 1542 1875 2061 2525 2506 2453 2509 2521 2654
1980 2344 2276 2005 2175 2684 3236 2735 2070 1281 991 840 730 1896 3069 2769 2306 2719 2037 1814 1427 1733 443 1373 1429 918 1125 201 472 142 617 901 915 998 1273 1257 1365 1616 2129 2747 2673 2595 2923
2356 2678 2583 2911 2372 2511 3426 2688 2320 2506 1491 859 827 877 2853 1873 2118 1890 1058 1271 2451 1246 742 288 597 960 860 330 177 191 603 526 615 533 936 1384 1827 875 1367 2388 2438 2492 2365
2517 2775 3261 3030 3403 3064 2601 3296 1733 1364 1350 1146 809 753 2861 1936 2151 1965 1131 2739 1503 456 582 411 1026 528 601 355 189 327 726 472 308 293 546 638 1315 1354 1764 1879 2475 1925 2207
2466 3064 3290 2979 3737 2606 2355 2080 1709 1240 1346 1170 1191 2362 2738 1991 2349 2365 923 2169 1654 1429 1035 2326 1067 1299 320 531 404 401 579 478 421 344 350 482 1393 1755 1740 1120 1556 958 1191
2483 3540 3521 3089 3824 2733 2279 2424 1749 1756 1126 1091 1143 2171 1991 1943 2475 2530 2431 1848 2286 2154 2156 2306 2554 506 475 417 201 205 236 217 248 342 328 442 722 889 862 1477 2073 2647 1826
1901 2966 3109 3448 3651 3269 2953 2640 2742 2378 2130 1500 1516 1574 1903 2211 2584 2814 2887 2275 2682 2888 1696 2763 1559 1167 764 882 756 211 51 51 265 780 1285 459 1488 460 897 1240 1782 2595 3444
1550 2275 3101 2857 3481 3283 3607 2629 2947 1960 1905 1702 1581 1556 2061 2649 2732 2933 2953 2748 2796 1891 2602 2192 2665 2188 2870 2298 1866 603 1162 1182 686 539 466 1158 664 1583 2747 1667 1357 1716 2984
1818 2510 2966 3025 3730 3478 3089 3359 2781 2942 2091 1889 1889 2463 2339 2816 2902 2174 2838 2871 2970 2081 2644 2883 2779 2932 2325 2273 2168 2523 1734 1741 1733 749 664 1126 1347 1187 1610 1602 1562 1335 2268
1452 1879 2608 3270 3635 3365 3312 3142 3136 3213 3211 2532 2829 2180 1816 1745 2474 2616 2310 2885 3139 2832 3094 2746 3140 2955 2689 2494 2179 2247 1992 2069 1679 1335 1267 1380 1079 1109 829 689 1354 1421 1270

GFSSE_con_sbcape_123.txt.gz
CAPE
22 587 1693 1883 2167 2105 1864 1817 1690 2092 2035 2474 2383 2588 2422 2519 2556 2692 2537 2687 2244 2189 2549 1838 1777 2082 1845 2082 2184 1939 1697 1300 1631 725 1205 1060 833 1328 2101 1201 932 1003 1818
3 275 2136 2434 2320 1995 1863 1774 1787 2195 1694 2163 2415 2416 2406 2459 2656 2619 2560 2591 2533 2495 1941 1873 1826 1823 2155 1552 1361 1573 1078 1544 1547 1435 1363 1595 1307 1279 1522 1215 913 1262 1110
1 876 1822 2701 2745 2155 1896 1999 1856 1699 1811 2134 2792 2535 2326 2410 2600 2795 2741 2380 1917 2411 2530 1897 1826 1852 1769 1643 1634 602 888 1642 1928 1437 1357 1026 980 1488 1432 1229 982 808 1534
384 987 1788 2797 2919 2597 2463 2460 2199 2161 1903 2343 2787 2411 2304 2463 2842 2893 2514 2620 2694 1727 1453 1508 1619 1958 1705 1714 1853 1748 1204 1457 1445 2213 439 373 782 1040 718 1118 1579 1281 1485
634 1051 2159 3175 3104 2192 2269 2584 2488 2586 2332 2507 2552 2538 2368 2676 2905 2815 2380 1991 2309 2074 1468 1310 1427 1692 1699 1576 1590 1469 1294 1273 886 775 42 0 38 653 449 626 599 387 974
556 1700 3107 3369 3182 2814 2281 2715 2764 2614 2527 2518 2487 2663 2410 2730 2825 2787 2176 2185 2105 1714 1650 1519 1545 1927 1521 1319 1492 1542 1538 1052 1084 257 0 125 697 1693 1382 1639 1416 1440 1525
1708 2298 2780 3372 3253 3094 3115 2855 2825 2720 2668 2709 2372 2545 2795 2883 3007 2774 2189 2091 2247 2143 2002 1740 1422 1655 1239 1412 1308 1031 1106 871 796 485 0 278 1257 1867 1018 799 990 498 318
1790 2303 2481 3099 3262 3182 2899 2733 2714 2189 2247 2419 2702 2704 2846 3050 3086 2912 2342 2020 1880 1956 2219 1889 1737 1381 1135 1424 1278 946 1103 905 1328 296 170 588 1830 2136 1182 332 534 814 539
1738 1989 2134 2335 2052 2451 2944 2825 2851 2677 2606 2541 2732 2676 2862 2767 2247 2324 2584 2375 1797 2154 1805 1638 1470 1686 1035 1521 1291 977 1144 1715 1175 514 782 1438 2191 2035 1149 881 675 610 338
1544 1845 1950 1852 1781 2120 2178 3106 3149 2939 2582 2217 1921 1990 2095 2092 2053 2147 2742 2703 1967 2042 1791 1446 1311 1438 1073 1130 993 1211 1599 1544 769 309 325 887 2003 1272 677 820 1188 1035 1462
1367 1404 1627 1699 1568 1608 1899 1936 2924 2431 2127 2114 1972 1780 2333 1401 1507 1738 2013 1778 1823 1849 1620 1737 1369 1601 1311 1227 1390 1483 1489 949 447 278 128 1391 1601 1378 625 329 696 603 468
1169 1286 1414 1509 1390 1436 2011 1760 1874 1632 1677 1635 1780 1882 1668 1194 1229 1517 1870 2074 1565 1922 1726 1746 2215 1529 1501 1084 936 1504 1153 674 367 5 512 2255 2169 2205 1210 1026 989 743 501
1079 1276 1285 1359 1356 1365 1631 1753 1751 1508 1494 1501 1415 1572 1678 1514 1307 1399 1404 1504 1119 1421 1368 1842 2010 1466 1010 816 409 443 506 316 216 0 376 2238 2347 2617 1979 1551 1310 785 404
953 1076 1124 1170 1187 976 1367 1235 1218 1337 1417 1598 1413 1691 1417 896 888 904 1140 1283 887 671 1001 1243 1182 1288 917 394 196 141 51 126 228 172 509 2071 2433 2710 2304 1708 1358 861 713
1107 1027 879 947 943 915 997 812 1055 1159 1339 1392 1228 1521 1318 916 322 860 1194 1380 1420 1065 677 715 806 607 297 172 177 193 144 152 239 410 598 1904 2065 2487 2724 1684 1324 944 739
1314 1143 997 968 837 1382 1262 1138 1199 1191 1085 1110 1023 1164 1489 1463 1280 1058 1274 1237 1503 1216 999 894 823 629 559 286 212 115 88 286 981 659 505 1486 2115 2110 2263 2286 1718 1363 1281
1125 1281 1422 1214 1154 1777 1620 1919 1708 1287 1279 1542 1182 1642 1802 1358 1998 1288 1297 1127 986 1004 872 981 978 709 956 1033 117 0 18 152 654 826 944 744 1539 2375 2520 2549 2374 2297 2088
1063 1468 1735 1917 1365 2107 1564 1799 1906 1690 983 1431 1367 1928 1570 1445 1326 1511 1245 1182 1187 1009 854 1099 1031 820 752 577 369 28 37 42 23 678 1336 691 1004 1748 2353 2487 2511 2520 2559
1159 1590 1965 2043 1726 2163 2135 1805 1486 1910 1299 1594 1622 1978 1481 1310 1380 1314 1289 1200 1067 1012 823 728 694 611 747 635 422 245 94 146 12 100 511 785 1349 1360 1088 2271 2440 2502 2763
1546 1757 1606 1820 2287 2094 1994 2143 2078 1893 1588 1014 1617 2114 1525 1133 1698 1050 1321 1017 1080 1154 690 633 303 667 763 535 350 147 41 17 90 223 250 636 919 1440 1137 1075 1700 1786 2490
1874 2011 2509 1827 2319 2231 2010 1804 1903 1842 1517 1257 955 2012 1754 1201 1504 1158 1209 1027 1069 1136 930 567 582 439 638 474 304 81 117 10 0 0 56 107 451 715 734 1035 986 870 1026
2499 2382 2498 2322 2418 2146 2004 1756 1529 1802 1318 1271 1137 1782 2230 1802 1504 1128 1093 1036 1178 1116 885 751 385 376 553 220 132 137 129 110 121 101 100 49 34 180 905 1233 1172 874 741
2570 2586 2707 2653 2469 2069 1881 1925 1995 1885 1524 1261 1264 1306 1888 1600 1460 1271 1189 718 1173 838 896 1105 798 595 115 79 99 2 9 63 19 29 140 106 65 193 485 627 1357 1161 995
958 2073 2875 2618 2924 2316 2123 1737 1841 1917 1783 1358 1213 1066 1846 1703 1571 1531 1285 935 899 1196 755 1090 803 780 505 209 171 169 5 93 96 253 206 303 364 168 1 0 749 981 1259
708 3413 3081 2861 2335 2221 2206 1730 1702 1606 1580 1400 1328 912 922 1761 1725 1570 1444 1134 653 1089 1026 1060 751 860 666 312 581 510 102 12 113 128 172 425 462 136 0 0 113 412 342
312 1231 2499 2483 2462 2331 2004 1810 1572 1412 1417 1341 1223 1341 1132 1237 1758 1653 1564 1499 898 895 1121 1057 838 705 605 282 193 537 515 154 389 660 356 273 455 575 557 199 602 164 126